[[{"header":{"parameterUnit":"m.s-1","parameterCategory":1,"la1":30.6,"la2":29.2853,"lo1":-89.7004,"lo2":-87.6739,"dy":0.0162,"dx":0.0183,"nx":112,"ny":82,"refTime":"2026-03-15T12:00:00:Z","depth":0,"parameterNumber":2,"parameterNumberName":"U-component_of_WINDS"},"data":[0.0,0.0,0.0,0.0,0.0,0.0,0.0,0.0,0.0,0.0,0.0,0.0,0.0,0.0,0.0,0.0,0.0,0.0,0.0,0.0,0.0,0.0,0.0,0.0,0.0,0.0,0.0,0.0,0.0,0.0,0.0,0.0,0.0,0.0,0.0,0.0,0.0,0.0,0.0,0.0,0.0,0.0,0.0,0.0,0.0,0.0,0.0,0.0,0.0,0.0,0.0,0.0,0.0,0.0,0.0,0.0,0.0,0.0,0.0,0.0,0.0,0.0,0.0,0.0,0.0,0.0,0.0,0.0,0.0,0.0,0.0,0.0,0.0,0.0,0.0,0.0,0.0,0.0,0.0,0.0,0.0,0.0,0.0,0.0,0.0,0.0,0.0,0.0,0.0,0.0,0.0,-0.1564,-0.0968,-0.0589,-0.0593,-0.0232,0.0,0.0,0.0,0.0,0.0,0.0,0.0,0.0,0.0,0.0,0.0,0.0,0.0,0.0,0.0,0.0,0.0,0.0,0.0,0.0,0.0,0.0,0.0,0.0,0.0,0.0,0.0,0.0,0.0,0.0,0.0,0.0,0.0,0.0,0.0,0.0,0.0,0.0,0.0,0.0,0.0,0.0,0.0,0.0,0.0,0.0,0.0,0.0,0.0,0.0,0.0,0.0,0.0,0.0,0.0,0.0,0.0,0.0,0.0,0.0,0.0,0.0,0.0,0.0,0.0,0.0,0.0,0.0,0.0,0.0,0.0,0.0,0.0,0.0,0.0,0.0,0.0,0.0,0.0,0.0,0.0,0.0,0.0,0.0,0.0,0.0,0.0,0.0,0.0,0.0,0.0,0.0,0.0,0.0,0.0,0.0,0.0,0.0,0.0,0.0,0.0,0.0,0.0,0.0,0.0,0.0,-0.1431,-0.0381,-0.0173,-0.0107,-0.0111,-0.0043,0.0,0.0,0.0,0.0,0.0,0.0,0.0,0.0,0.0,0.0,0.0,0.0,0.0,0.0,0.0,0.0,0.0,0.0,0.0,0.0,0.0,0.0,0.0,0.0,0.0,0.0,0.0,0.0,0.0,0.0,0.0,0.0,0.0,0.0,0.0,0.0,0.0,0.0,0.0,0.0,0.0,0.0,0.0,0.0,0.0,0.0,0.0,0.0,0.0,0.0,0.0,0.0,0.0,0.0,0.0,0.0,0.0,0.0,0.0,0.0,0.0,0.0,0.0,0.0,0.0,0.0,0.0,0.0,0.0,0.0,0.0,0.0,0.0,0.0,0.0,0.0,0.0,0.0,0.0,0.0,0.0,0.0,0.0,0.0,0.0,0.0,0.0,0.0,0.0,0.0,0.0,0.0,0.0,0.0,0.0,0.0,0.0,0.0,0.0,0.0,0.0,0.0,0.0,0.0,0.0,-0.1551,-0.1046,-0.0109,0.0,0.0,0.0,0.0,0.0,0.0,0.0,0.0,0.0,0.0,0.0,0.0,0.0,0.0,0.0,0.0,0.0,0.0,0.0,0.0,0.0,0.0,0.0,0.0,0.0,0.0,0.0,0.0,0.0,0.0,0.0,0.0,0.0,0.0,0.0,0.0,0.0,0.0,0.0,0.0,0.0,0.0,0.0,0.0,0.0,0.0,0.0,0.0,0.0,0.0,0.0,0.0,0.0,0.0,0.0,0.0,0.0,0.0,0.0,0.0,0.0,0.0,0.0,0.0,0.0,0.0,0.0,0.0,0.0,0.0,0.0,0.0,0.0,0.0,0.0,0.0,0.0,0.0,0.0,0.0,0.0,0.0,0.0,0.0,0.0,0.0,0.0,0.0,0.0,0.0,0.0,0.0,0.0,0.0,0.0,0.0,0.0,0.0,0.0,0.0,0.0,0.0,0.0,0.0,0.0,0.0,0.0,0.0,0.0,-0.0863,-0.062,-0.0065,0.0,0.0,0.0,0.0,0.0,0.0,0.0,0.0,0.0,0.0,0.0,0.0,0.0,0.0,0.0,0.0,0.0,0.0,0.0,0.0,0.0,0.0,0.0,0.0,0.0,0.0,0.0,0.0,0.0,0.0,0.0,0.0,0.0,0.0,0.0,0.0,0.0,0.0,0.0,0.0,0.0,0.0,0.0,0.0,0.0,0.0,0.0,0.0,0.0,0.0,0.0,0.0,0.0,0.0,0.0,0.0,0.0,0.0,0.0,0.0,0.0,0.0,0.0,0.0,0.0,0.0,0.0,0.0,0.0,0.0,0.0,0.0,0.0,0.0,0.0,0.0,0.0,0.0,0.0,0.0,0.0,0.0,0.0,0.0,0.0,0.0,0.0,0.0,0.0,0.0,0.0,0.0,0.0,0.0,0.0,0.0,0.0,0.0,0.0,0.0,0.0,0.0,0.0,0.0,0.0,0.0,0.0,0.0,0.0,-0.0413,-0.0067,0.0,0.0,0.0,0.0,0.0,0.0,0.0,0.0,0.0,0.0,0.0,0.0,0.0,0.0,0.0,0.0,0.0,0.0,0.0,0.0,0.0,0.0,0.0,0.0,0.0,0.0,0.0,0.0,0.0,0.0,0.0,0.0,0.0,0.0,0.0,0.0,0.0,0.0,0.0,0.0,0.0,0.0,0.0,0.0,0.0,0.0,0.0,0.0,0.0,0.0,0.0,0.0,0.0,0.0,0.0,0.0,0.0,0.0,0.0,0.0,0.0,0.0,0.0,0.0,0.0,0.0,0.0,0.0,0.0,0.0,0.0,0.0,0.0,0.0,0.0,0.0,0.0,0.0,0.0,0.0,0.0,0.0,0.0,0.0,0.0,0.0,0.0,0.0,0.0,0.0,0.0,0.0,0.0,0.0,0.0,0.0,0.0,0.0,0.0,0.0,0.0,0.0,0.0,0.0,0.0,0.0,0.0,0.0,0.0,0.0,-0.1056,-0.0508,0.0,0.0,0.0,0.0,0.0,0.0,0.0,0.0,0.0,0.0,0.0,0.0,0.0,0.0,0.0,0.0,0.0,0.0,0.0,0.0,0.0,0.0,0.0,0.0,0.0,0.0,0.0,0.0,0.0,0.0,0.0,0.0,0.0,0.0,0.0,0.0,0.0,0.0,0.0,0.0,0.0,0.0,0.0,0.0,0.0,0.0,0.0,0.0,0.0,0.0,0.0,0.0,0.0,0.0,0.0,0.0,0.0,0.0,0.0,0.0,0.0,0.0,0.0,0.0,0.0,0.0,0.0,0.0,0.0,0.0,0.0,0.0,0.0,0.0,0.0,0.0,0.0,0.0,0.0,0.0,0.0,0.0,0.0,0.0,0.0,0.0,0.0,0.0,0.0,0.0,0.0,0.0,0.0,0.0,0.0,0.0,0.0,0.0,0.0,0.0,0.0,0.0,0.0,0.0,0.0,0.0,0.0,0.0,0.0,-0.1459,-0.1007,-0.056,0.0,0.0,0.0,0.0,0.0,0.0,0.0,0.0,0.0,0.0,0.0,0.0,0.0,0.0,0.0,0.0,0.0,0.0,0.0,0.0,0.0,0.0,0.0,0.0,0.0,0.0,0.0,0.0,0.0,0.0,0.0,0.0,0.0,0.0,0.0,0.0,0.0,0.0,0.0,0.0,0.0,0.0,0.0,0.0,0.0,0.0,0.0,0.0,0.0,0.0,0.0,0.0,0.0,0.0,0.0,0.0,0.0,0.0,0.0,0.0,0.0,0.0,0.0,0.0,0.0,0.0,0.0,0.0,0.0,0.0,0.0,0.0,0.0,0.0,0.0,0.0,0.0,0.0,0.0,0.0,0.0,0.0,0.0,0.0,0.0,0.0,0.0,0.0,0.0,0.0,0.0,0.0,0.0,0.0,0.0,0.0,0.0,0.0,0.0,0.0,0.0,0.0,0.0,0.0,0.0,0.0,0.0,0.0,0.0,-0.0101,0.0,0.0,0.0,0.0,0.0,0.0,0.0,0.0,0.0,0.0,0.0,0.0,0.0,0.0,0.0,0.0,0.0,0.0,0.0,0.0,0.0,0.0,0.0,0.0,0.0,0.0,0.0,0.0,0.0,0.0,0.0,0.0,0.0,0.0,0.0,0.0,0.0,0.0,0.0,0.0,0.0,0.0,0.0,0.0,0.0,0.0,0.0,0.0,0.0,0.0,0.0,0.0,0.0,0.0,0.0,0.0,0.0,0.0,0.0,0.0,0.0,0.0,0.0,0.0,0.0,0.0,0.0,0.0,0.0,0.0,0.0,0.0,0.0,0.0,0.0,0.0,0.0,0.0,0.0,0.0,0.0,0.0,0.0,0.0,0.0,0.0,0.0,0.0,0.0,0.0,0.0,0.0,0.0,0.0,0.0,0.0,0.0,0.0,0.0,0.0,0.0,0.0,0.0,0.0,0.0,0.0,0.0,0.0,0.0,0.0,0.0,-0.0803,-0.032,0.0,0.0,0.0,0.0,0.0,0.0,0.0,0.0,0.0,0.0,0.0,0.0,0.0,0.0,0.0,0.0,0.0,0.0,0.0,0.0,0.0,0.0,0.0,0.0,0.0,0.0,0.0,0.0,0.0,0.0,0.0,0.0,0.0,0.0,0.0,0.0,0.0,0.0,0.0,0.0,0.0,0.0,0.0,0.0,0.0,0.0,0.0,0.0,0.0,0.0,0.0,0.0,0.0,0.0,0.0,0.0,0.0,0.0,0.0,0.0,0.0,0.0,0.0,0.0,0.0,0.0,0.0,0.0,0.0,0.0,0.0,0.0,0.0,0.0,0.0,0.0,0.0,0.0,0.0,0.0,0.0,0.0,0.0,0.0,0.0,0.0,0.0,0.0,0.0,0.0,0.0,0.0,0.0,0.0,0.0,0.0,0.0,0.0,0.0,0.0,0.0,0.0,0.0,0.0,0.0,0.0,0.0,0.0,0.0,0.0,-0.0661,-0.0273,0.0,0.0,0.0,0.0,0.0,0.0,0.0,0.0,0.0,0.0,0.0,0.0,0.0,0.0,0.0,0.0,0.0,0.0,0.0,0.0,0.0,0.0,0.0,0.0,0.0,0.0,0.0,0.0,0.0,0.0,0.0,0.0,0.0,0.0,0.0,0.0,0.0,0.0,0.0,0.0,0.0,0.0,0.0,0.0,0.0,0.0,0.0,0.0,0.0,0.0,0.0,0.0,0.0,0.0,0.0,0.0,0.0,0.0,0.0,0.0,0.0,0.0,0.0,0.0,0.0,0.0,0.0,0.0,0.0,0.0,0.0,0.0,0.0,0.0,0.0,0.0,0.0,0.0,0.0,0.0,0.0,0.0,0.0,0.0,0.0,0.0,0.0,0.0,0.0,0.0,0.0,0.0,0.0,0.0,0.0,0.0,0.0,0.0,0.0,0.0,0.0,0.0,0.0,0.0,0.0,0.0,0.0,0.0,0.0,0.0,0.0,0.0,0.0,0.0,0.0,0.0,0.0,0.0,0.0,0.0,0.0,0.0,0.0,0.0,0.0,0.0,0.0,0.0,0.0,0.0,0.0,0.0,0.0,0.0,0.0,0.0,0.0,0.0,0.0,0.0,0.0,0.0,0.0,0.0,0.0,0.0,0.0,0.0,0.0,0.0,0.0,0.0,0.0,0.0,0.0,0.0,0.0,0.0,0.0,0.0,0.0,0.0,0.0,0.0,0.0,0.0,0.0,0.0,0.0,0.0,0.0,0.0,0.0,0.0,0.0,0.0,0.0,0.0,0.0,0.0,-0.7208,0.0,0.0,0.0,0.0,0.0,0.0,0.0,0.0,0.0,0.0,0.0,0.0,0.0,0.0,0.0,0.0,0.0,0.0,0.0,0.0,0.0,0.0,0.0,0.0,0.0,0.0,0.0,0.0,0.0,0.0,0.0,0.0,0.0,0.0,0.0,0.0,0.0,0.0,0.0,0.0,0.0,0.0,0.0,0.0,0.0,0.0,0.0,0.0,0.0,0.0,0.0,0.0,0.0,0.0,0.0,0.0,0.0,0.0,0.0,0.0,0.0,0.0,0.0,0.0,0.0,0.0,0.0,0.0,0.0,0.0,0.0,0.0,0.0,0.0,0.0,0.0,0.0,0.0,0.0,0.0,0.0,0.0,0.0,0.0,0.0,0.0,0.0,0.0,0.0,0.0,0.0,0.0,0.0,0.0,0.0,0.0,0.0,0.0,0.0,0.0,0.0,0.0,0.0,0.0,0.0,0.0,0.0,0.0,0.0,0.0,0.0,0.0,-0.685,0.0,0.0,0.0,0.0,0.0,0.0,0.0,0.0,0.0,0.0,0.0,0.0,0.0,0.0,0.0,0.0,0.0,0.0,0.0,0.0,0.0,0.0,0.0,0.0,0.0,0.0,0.0,0.0,0.0,0.0,0.0,0.0,0.0,0.0,0.0,0.0,0.0,0.0,0.0,0.0,0.0,0.0,0.0,0.0,0.0,0.0,0.0,0.0,0.0,0.0,0.0,0.0,0.0,0.0,0.0,0.0,0.0,0.0,0.0,0.0,0.0,0.0,0.0,0.0,0.0,0.0,0.0,0.0,0.0,0.0,0.0,0.0,0.0,0.0,0.0,0.0,0.0,0.0,0.0,0.0,0.0,0.0,0.0,0.0,0.0,0.0,0.0,0.0,0.0,0.0,0.0,0.0,0.0,0.0,0.0,0.0,0.0,0.0,0.0,0.0,0.0,0.0,0.0,0.0,-0.6539,-0.6568,-0.6539,-0.6366,-0.6107,-0.5826,-0.6152,-0.6036,-0.5639,0.0,0.0,0.0,0.0,0.0,0.0,0.0,0.0,0.0,0.0,0.0,0.0,0.0,0.0,0.0,0.0,0.0,0.0,0.0,0.0,0.0,0.0,0.0,0.0,0.0,-0.1348,-0.0914,0.0,0.0,0.0,0.0,0.0,0.0,0.0,0.0,0.0,0.0,0.0,0.0,0.0,0.0,0.0,0.0,0.0,0.0,0.0,0.0,0.0,0.0,0.0,0.0,0.0,0.0,0.0,0.0,0.0,0.0,0.0,0.0,0.0,0.0,0.0,0.0,0.0,0.0,0.0,0.0,0.0,0.0,0.0,0.0,0.0,0.0,0.0,0.0,0.0,0.0,0.0,0.0,0.0,0.0,0.0,0.0,-0.8117,-0.8117,0.0,0.0,0.0,0.0,0.0,0.0,0.0,0.0,0.0,0.0,0.0,0.0,0.0,-0.7016,-0.7032,-0.6393,-0.6066,-0.6066,-0.5442,-0.5156,-0.5156,-0.5125,-0.5109,-0.5039,-0.5118,0.0,-0.5947,-0.6037,0.0,0.0,0.0,0.0,0.0,0.0,0.0,0.0,0.0,0.0,0.0,0.0,0.0,0.0,0.0,0.0,0.0,0.0,0.0,0.0,0.0,0.0,-0.016,-0.0268,-0.0209,-0.0152,0.0,-0.0637,-0.0889,-0.0139,0.0,0.0,0.0,0.0,0.0,0.0,0.0,0.0,0.0,0.0,0.0,0.0,0.0,0.0,0.0,0.0,0.0,0.0,0.0,0.0,0.0,0.0,0.0,0.0,0.0,0.0,0.0,0.0,0.0,0.0,0.0,0.0,0.0,0.0,0.0,0.0,0.0,0.0,0.0,0.0,0.0,0.0,0.0,0.0,0.0,0.0,0.0,0.0,0.0,0.0,0.0,-0.8402,-0.7936,-0.8287,-0.8009,-0.7897,0.0,0.0,0.0,0.0,0.0,0.0,0.0,0.0,0.0,-0.6418,-0.6398,-0.6236,-0.5872,-0.5548,-0.5366,-0.5366,-0.5123,-0.5009,-0.5009,-0.5128,-0.5169,-0.5169,-0.5257,-0.5438,-0.5657,-0.5471,-0.5352,-0.5285,0.0,0.0,0.0,0.0,-0.4721,-0.4721,-0.4721,-0.4721,0.0,0.0,0.0,0.0,0.0,0.0,0.0,0.0,0.0,0.0,0.0,0.0,0.0,0.0,0.0,0.0,0.0,-0.0247,-0.039,0.0,0.0,0.0,0.0,0.0,0.0,0.0,0.0,0.0,0.0,0.0,0.0,0.0,0.0,0.0,0.0,0.0,0.0,0.0,0.0,0.0,0.0,0.0,0.0,0.0,0.0,0.0,0.0,0.0,0.0,0.0,0.0,0.0,0.0,0.0,0.0,0.0,0.0,0.0,0.0,0.0,0.0,0.0,0.0,0.0,0.0,0.0,0.0,0.0,0.0,0.0,0.0,-0.7913,-0.7722,-0.7928,-0.7627,-0.7436,0.0,0.0,0.0,0.0,0.0,0.0,-0.6823,-0.6823,-0.6491,-0.5784,-0.5832,-0.5608,-0.5087,-0.5128,-0.5142,-0.5148,-0.5218,-0.5272,-0.5272,-0.542,-0.5508,-0.5515,-0.5596,-0.5438,-0.5082,-0.5067,-0.5047,-0.4941,-0.4695,-0.4608,-0.4546,-0.4302,-0.4211,-0.4211,-0.4211,-0.4211,-0.4072,-0.3228,0.0,-0.2816,-0.2136,0.0,0.0,0.0,0.0,-0.083,-0.0823,-0.0426,0.0,0.0,0.0,0.0,0.0,0.0,0.0,0.0,0.0,0.0,0.0,0.0,0.0,0.0,0.0,0.0,0.0,0.0,0.0,0.0,0.0,0.0,0.0,0.0,0.0,0.0,0.0,0.0,0.0,0.0,0.0,0.0,0.0,0.0,0.0,0.0,0.0,0.0,0.0,0.0,0.0,0.0,0.0,0.0,0.0,0.0,0.0,0.0,0.0,0.0,0.0,0.0,0.0,0.0,0.0,0.0,0.0,0.0,0.0,0.0,0.0,-0.5782,-0.5925,0.0,0.0,0.0,0.0,-0.7101,-0.7091,-0.6793,-0.6083,-0.6053,-0.577,-0.5178,-0.5329,-0.5473,-0.5555,-0.5691,-0.5759,-0.5759,-0.5766,-0.5766,-0.5766,-0.5772,-0.5779,-0.5779,-0.5786,-0.5206,-0.4329,-0.5199,-0.5386,-0.4994,-0.4189,-0.3773,-0.3564,-0.2673,-0.2335,-0.2335,-0.2335,-0.2335,-0.221,-0.1474,-0.1228,-0.1228,-0.1167,-0.1167,0.0,0.0,-0.0614,-0.0061,-0.0059,-0.0029,0.0,0.0,0.0,0.0,0.0,0.0,0.0,0.0,0.0,0.0,0.0,0.0,0.0,0.0,0.0,0.0,0.0,0.0,0.0,0.0,0.0,0.0,0.0,0.0,0.0,0.0,0.0,0.0,0.0,0.0,0.0,0.0,0.0,0.0,0.0,0.0,0.0,0.0,0.0,0.0,0.0,0.0,0.0,0.0,0.0,0.0,0.0,0.0,0.0,0.0,0.0,0.0,0.0,0.0,0.0,0.0,0.0,0.0,0.0,0.0,0.0,-0.6538,-0.628,0.0,-0.6324,-0.6445,-0.6313,-0.5856,-0.6004,-0.603,-0.5774,-0.5836,-0.578,-0.5562,-0.5616,-0.5671,-0.5725,-0.5779,-0.58,-0.58,-0.58,-0.544,-0.4751,-0.4751,-0.4426,-0.3808,-0.3912,-0.3683,-0.327,-0.3694,-0.3737,-0.352,-0.3216,-0.3064,-0.299,-0.263,-0.2533,-0.2533,-0.2533,-0.2533,-0.2365,-0.1497,-0.0857,-0.0381,-0.0381,-0.0381,-0.0381,-0.0381,-0.0188,0.0,0.0,0.0,0.0,0.0,0.0,0.0,0.0,0.0,0.0,0.0,0.0,0.0,0.0,0.0,0.0,0.0,0.0,0.0166,0.064,0.0705,0.0699,0.0711,0.071,0.0508,0.0052,0.0,0.0,0.0,0.0,0.0,0.0,0.0,0.0,0.0,0.0,0.0,0.0,0.0,0.0,0.0,0.0,0.0,0.0,0.0,0.0,0.0,0.0,0.0,0.0,0.0,0.0,0.0,0.0,0.0,0.0,0.0,0.0,0.0,0.0,0.0,0.0,0.0,-0.6245,-0.6341,-0.6106,-0.5871,-0.5701,-0.5895,-0.5799,-0.5317,-0.5521,-0.5657,-0.5657,-0.5752,-0.58,-0.58,-0.5854,-0.5692,-0.5359,-0.5408,-0.5242,-0.4905,-0.4905,-0.4498,-0.3832,-0.3832,-0.3461,-0.283,-0.2917,-0.2725,-0.2352,-0.2428,-0.2201,-0.1827,-0.2131,-0.224,-0.2204,-0.1895,-0.1792,-0.1792,-0.1792,-0.1792,-0.1682,-0.107,-0.0465,0.0,0.0,0.0,0.0,0.0,0.0,0.0,0.0,0.0,0.0,0.0,0.0,0.0,0.0,0.0,0.0,0.0,0.0,0.0,0.0,0.0,0.0,0.0,0.0,0.0173,0.0674,0.0742,0.074,0.0736,0.0733,0.0545,0.0028,0.0,0.0,0.0,0.0,0.0,0.0,0.0,0.0,0.0,0.03,0.0438,0.0449,0.0,0.0,0.0,0.0,0.0,0.0,0.0,0.0,0.0,0.0,0.0,0.0,0.0,0.0,0.0,0.0,0.0,0.0,0.0,0.0,0.0,0.0,0.0,-0.5874,-0.6088,-0.5856,-0.5006,-0.5189,-0.5344,-0.513,-0.542,-0.5596,-0.5596,-0.569,-0.577,-0.577,-0.5741,-0.5705,-0.5705,-0.5845,-0.5432,-0.4453,-0.4596,-0.4146,-0.309,-0.309,-0.309,-0.3051,-0.3047,-0.3047,-0.3012,-0.3012,-0.2465,-0.1569,-0.1569,-0.0928,-0.0076,-0.0919,-0.1273,-0.1163,-0.0328,0.0,0.0,0.0,0.0,0.0,0.0,0.0,0.0,0.0,0.0,0.0,0.0,0.0,0.0,0.0,0.0,0.0,0.0,0.0,0.0,0.0,0.0031,0.0031,0.0031,0.0059,0.0056,0.0,0.0029,0.0029,0.0029,0.0061,0.0,0.0123,0.0123,0.0123,0.0093,0.0093,0.0062,0.0031,0.0031,0.0062,0.0093,0.0093,0.0093,0.0093,0.009,0.0089,0.0089,0.0913,0.1332,0.1353,0.0,0.0,0.0,0.0,0.0,0.0,0.0,0.0,0.0,0.0,0.0,0.0,0.0,0.0,0.0,0.0,0.0,0.0,0.0,0.0,0.0,0.0,-0.5308,-0.5339,-0.5517,-0.5538,-0.5276,-0.5446,-0.5508,-0.5467,-0.5637,-0.5745,-0.5745,-0.5183,-0.4842,-0.4842,-0.4204,-0.3827,-0.3827,-0.3891,-0.3779,-0.3489,-0.3516,-0.3396,-0.308,-0.311,-0.271,-0.2012,-0.2026,-0.1597,-0.0865,-0.0851,-0.0684,-0.0443,-0.0443,-0.0278,-0.0039,-0.0265,-0.037,-0.0327,-0.0073,0.0,0.0,0.0,0.0,0.0,0.0,0.0,0.0,0.0,0.0,0.0,0.0,0.0,0.0,0.0,0.0,0.0,0.0,0.0,0.0,0.0,0.051,0.0948,0.0928,0.1488,0.1529,0.0241,0.0514,0.0943,0.0943,0.1531,0.0,0.2673,0.2764,0.2519,0.1875,0.1814,0.1568,0.0986,0.0955,0.1242,0.0,0.1967,0.1953,0.1962,0.1949,0.1953,0.1943,0.2191,0.2327,0.0,0.0,0.0,0.0,0.0,0.0,0.0,0.0,0.0,0.0,0.0,0.0,0.0,0.0,0.0,0.0,0.0,0.0,0.0,0.0,0.0,0.0,-0.5038,-0.4859,-0.4748,-0.5216,-0.5583,-0.5583,-0.524,-0.5009,-0.5009,-0.4756,-0.4567,-0.4567,-0.4185,-0.3899,-0.3899,-0.3407,-0.31,-0.3091,-0.3091,-0.2887,-0.2463,-0.2463,-0.2233,-0.1804,-0.1822,-0.1492,-0.0923,-0.0941,-0.0574,0.0,0.0,0.0,0.0,0.0,0.0,0.0,0.0,0.0,0.0,0.0,0.0,0.0,0.0,0.0,0.0,0.0,0.0,0.0,0.0,0.0,0.0,0.0,0.0,0.0,0.0,0.0317,0.0661,0.0661,0.1009,0.1316,0.1295,0.1647,0.1957,0.1957,0.0,0.0,0.131,0.1548,0.1878,0.1878,0.234,0.2868,0.0,0.3348,0.3153,0.2645,0.2582,0.2391,0.1914,0.1882,0.0,0.0,0.0,0.2716,0.2694,0.2697,0.0,0.0,0.0,0.0,0.0,0.0,0.0,0.0,0.2769,0.2643,0.0,0.0,0.0,0.0,0.0,0.0,0.0,0.0,0.0,0.0,0.0,0.0,0.0,0.0,0.0,0.0,-0.4518,-0.4048,-0.4048,-0.4868,-0.5491,-0.5447,-0.4617,-0.4048,-0.4048,-0.3358,-0.2917,-0.2917,-0.294,-0.294,-0.294,0.0,0.0,0.0,0.0,-0.2301,-0.1431,-0.1431,-0.0929,0.0,0.0,0.0,0.0,0.0,0.0,0.0,0.0,0.0,0.0,0.0,0.0,0.0,0.0,0.0,0.0,0.0,0.0,0.0,0.0,0.0,0.0,0.0,0.0,0.0,0.0,0.0,0.0037,0.0147,0.0183,0.0219,0.0329,0.1058,0.178,0.178,0.2433,0.3089,0.3089,0.3102,0.3081,0.3081,0.3056,0.304,0.304,0.2927,0.2834,0.2834,0.2931,0.3013,0.3013,0.3013,0.2984,0.2891,0.0,0.0,0.2902,0.2854,0.2883,0.3025,0.3017,0.3012,0.2999,0.2995,0.2995,0.2995,0.3769,0.4148,0.4167,0.4854,0.5157,0.5138,0.3674,0.3342,0.0,0.0,0.0,0.0,0.0,0.0,0.0,0.0,0.0,0.0,0.0,0.0,0.0,0.0,0.0,-0.3347,-0.3191,-0.3145,-0.3145,-0.3407,-0.3531,-0.3325,-0.3217,-0.3145,-0.3145,-0.3099,-0.3063,-0.3063,-0.2344,-0.1894,-0.1894,-0.1068,0.0,-0.0585,-0.0585,-0.0507,-0.0302,-0.0302,-0.0218,0.0,0.0,0.0,0.0,0.0,0.0,0.0,0.0,0.0,0.0,0.0,0.0,0.0,0.0,0.0,0.0,0.0,0.0,0.0,0.0,0.0,0.0,0.0,0.0,0.0,0.0,0.0,0.0,0.1043,0.1295,0.1462,0.2286,0.2657,0.2795,0.2795,0.2944,0.3089,0.3089,0.3687,0.4206,0.4206,0.4731,0.5216,0.5216,0.4393,0.3751,0.3751,0.4406,0.4888,0.4888,0.4888,0.4629,0.3973,0.3799,0.3852,0.4126,0.391,0.4121,0.498,0.495,0.4875,0.4884,0.4884,0.4884,0.4884,0.5048,0.5192,0.5302,0.5446,0.5562,0.5664,0.497,0.4804,0.0,0.0,0.0,0.0,0.0,0.0,0.0,0.0,0.0,0.0,0.0,-0.3679,-0.3328,0.0,-0.3293,-0.2853,-0.2504,-0.224,-0.2267,-0.1829,-0.1906,-0.278,-0.251,-0.223,-0.223,-0.1811,-0.1541,-0.1541,-0.1067,-0.0785,-0.0785,-0.0293,0.0,0.0,0.0,0.0,0.0,0.0,0.0,0.0,0.0,0.0,0.0,0.0,0.0,0.0,0.0,0.0,0.0,0.0,0.0,0.0,0.0,0.0,0.0,0.0,0.0,0.0,0.0,0.0,0.0,0.0,0.0414,0.0906,0.0896,0.1338,0.1906,0.2432,0.2612,0.2701,0.31,0.3604,0.398,0.3931,0.4298,0.4715,0.4715,0.5001,0.5249,0.5249,0.5557,0.58,0.58,0.5284,0.4913,0.4913,0.53,0.5617,0.5617,0.5617,0.5436,0.5044,0.4955,0.4967,0.5135,0.4991,0.5117,0.5656,0.5623,0.5617,0.5617,0.5617,0.5617,0.5617,0.5617,0.5623,0.5698,0.5698,0.5732,0.58,0.5615,0.5583,0.0,0.0,0.0,0.0,0.0,0.0,0.0,0.0,-0.3445,-0.3554,-0.3059,-0.2533,-0.2442,-0.255,-0.2581,-0.2358,-0.1731,-0.1276,-0.1297,-0.0548,-0.063,-0.2304,-0.1788,-0.1301,-0.1301,-0.0505,0.0,0.0,0.0,0.0,0.0,0.0,0.0,0.0,0.0,0.0,0.0,0.0,0.0,0.0,0.0,0.0,0.0,0.0,0.0,0.0,0.0,0.0,0.0,0.0,0.0,0.0,0.0,0.0,0.0,0.0,0.0,0.0,0.0,0.0171,0.0341,0.0339,0.1183,0.215,0.2139,0.2849,0.3646,0.3855,0.3897,0.3918,0.3928,0.4601,0.5232,0.5133,0.5747,0.6388,0.6388,0.6227,0.6081,0.6081,0.5996,0.5895,0.5895,0.5895,0.5867,0.5813,0.58,0.58,0.58,0.58,0.5813,0.584,0.582,0.58,0.58,0.5827,0.5833,0.58,0.58,0.58,0.58,0.58,0.58,0.58,0.58,0.5813,0.5847,0.5874,0.5908,0.5935,0.6091,0.6064,-0.4921,-0.4887,0.0,-0.5276,-0.4641,-0.3995,0.0,0.0,-0.2795,-0.2805,-0.2828,-0.2585,-0.1615,-0.1601,-0.1452,-0.0486,-0.0248,-0.0168,-0.0168,-0.0086,-0.0087,-0.0302,-0.0255,-0.0168,-0.0168,-0.0084,0.0,0.0,0.0,0.0,0.0,0.0,0.0,0.0,0.0,0.0,0.0,0.0,0.0,0.0,0.0,0.0,0.0,0.0,0.0,0.0,0.0,0.0,0.0,0.0,0.0,0.0,0.0,0.0,0.0,0.0,0.0,0.0,0.0,0.0712,0.1595,0.1608,0.2418,0.3396,0.3416,0.3479,0.3771,0.4684,0.4934,0.5142,0.609,0.6427,0.6503,0.649,0.6565,0.6654,0.6654,0.6532,0.6463,0.6463,0.6347,0.6245,0.6245,0.6245,0.6156,0.584,0.58,0.58,0.58,0.58,0.5854,0.5952,0.5881,0.58,0.58,0.5928,0.5942,0.5813,0.58,0.58,0.58,0.58,0.58,0.58,0.58,0.5867,0.5966,0.6139,0.6313,0.6443,0.6552,0.6478,-0.4516,0.0,0.0,0.0,-0.3505,-0.3178,-0.3287,-0.2572,-0.1894,-0.1894,-0.1533,-0.1065,-0.0631,-0.0608,-0.0542,0.0,0.0,0.0,0.0,0.0,0.0,0.0,0.0,0.0,0.0,0.0,0.0,0.0,0.0,0.0,0.0,0.0,0.0,0.0,0.0,0.0,0.0,0.0,0.0,0.0,0.0,0.0,0.0,0.0,0.0,0.0,0.0,0.0,0.0,0.0,0.0,0.0,0.0,0.0,0.0,0.0,0.0,0.0,0.0,0.0314,0.0851,0.1551,0.2603,0.374,0.445,0.5129,0.574,0.6128,0.6257,0.6368,0.6724,0.6831,0.681,0.6722,0.6702,0.6702,0.6702,0.6647,0.6607,0.6607,0.6559,0.6519,0.6519,0.6519,0.6471,0.6342,0.6179,0.6108,0.6108,0.6108,0.6129,0.6159,0.6105,0.6108,0.6108,0.6125,0.6139,0.6108,0.6108,0.6108,0.6108,0.6146,0.6193,0.6193,0.6281,0.6356,0.6417,0.6485,0.6546,0.6607,0.6668,0.6681,-0.3794,0.0,0.0,-0.2914,-0.2533,-0.2315,-0.2371,-0.1657,-0.0956,-0.0924,-0.0437,0.0,0.0,0.0,0.0,0.0,0.0,0.0,0.0,0.0,0.0,0.0,0.0,0.0,0.0,0.0,0.0,0.0,0.0,0.0,0.0,0.0,0.0,0.0,0.0,0.0,0.0,0.0,0.0,0.0,0.0,0.0,0.0,0.0,0.0,0.0,0.0,0.0,0.0,0.0,0.0,0.0047,0.042,0.0564,0.0617,0.0968,0.0867,0.0548,0.0548,0.1004,0.173,0.2638,0.3723,0.4854,0.5684,0.6528,0.7152,0.7105,0.7098,0.7071,0.697,0.6943,0.6916,0.6851,0.6824,0.6824,0.6824,0.679,0.6763,0.6763,0.6729,0.6702,0.6702,0.6702,0.6702,0.6702,0.6519,0.6422,0.6422,0.6422,0.6422,0.6422,0.6422,0.6422,0.6422,0.6422,0.6422,0.6422,0.6422,0.6422,0.6422,0.6518,0.6532,0.6532,0.6647,0.6702,0.6702,0.6742,0.6763,0.6763,0.6844,0.7118,0.0,0.0,-0.2755,-0.2861,-0.211,-0.1404,-0.1595,-0.0822,-0.0039,-0.004,0.0,0.0,0.0,0.0,0.0,0.0,0.0,0.0,0.0,0.0,0.0,0.0,0.0,0.0,0.0,0.0,0.0,0.0,0.0,0.0,0.0,0.0,0.0,0.0,0.0,0.0,0.0,0.0,0.0,0.0,0.0,0.0,0.0,0.0,0.0,0.0,0.0,0.0,0.0,0.0,0.0,0.0143,0.1428,0.1951,0.2093,0.3414,0.3035,0.1947,0.1947,0.3556,0.5633,0.568,0.6491,0.7463,0.7361,0.7366,0.7333,0.7139,0.7098,0.7092,0.7092,0.7092,0.7092,0.7085,0.7085,0.7085,0.7085,0.6977,0.6876,0.6876,0.6803,0.6702,0.6702,0.6702,0.6702,0.6702,0.6695,0.6688,0.6688,0.6688,0.6688,0.6688,0.6688,0.6688,0.6688,0.6688,0.6688,0.6688,0.6688,0.6688,0.6688,0.6695,0.6695,0.6695,0.6702,0.6702,0.6702,0.6851,0.6876,0.6883,0.7217,0.8027,0.0,0.0,-0.1625,-0.1091,-0.0689,-0.0468,-0.052,-0.0241,0.0,0.0,0.0,0.0,0.0,0.0,0.0,0.0,0.0,0.0,0.0,0.0,0.0,0.0,0.0,0.0,0.0,0.0,0.0,0.0,0.0,0.0,0.0,0.0,0.0,0.0,0.0,0.0,0.0,0.0,0.0,0.0,0.0,0.0,0.0,0.0,0.0492,0.1309,0.1309,0.1828,0.2661,0.2661,0.2633,0.2714,0.3149,0.3318,0.3401,0.3844,0.429,0.4524,0.3642,0.3894,0.4746,0.5549,0.6067,0.6538,0.7303,0.7522,0.7509,0.7461,0.7448,0.7448,0.7448,0.7448,0.7448,0.7448,0.7448,0.7448,0.7448,0.7407,0.7373,0.7373,0.7333,0.7299,0.7299,0.721,0.7109,0.6964,0.6824,0.6702,0.6702,0.6702,0.6702,0.6702,0.6702,0.6702,0.6702,0.6702,0.6702,0.6702,0.6702,0.6702,0.6702,0.6797,0.6851,0.6851,0.6903,0.7041,0.7143,0.807,0.8556,0.866,0.9639,1.0342,0.0,-0.0848,-0.0683,-0.0155,0.0,0.0,0.0,0.0,0.0,0.0,0.0,0.0,0.0,0.0,0.0,0.0,0.0,0.0,0.0,0.0,0.0,0.0,0.0,0.0,0.0,0.0,0.0,0.0,0.0,0.0,0.0,0.0,0.0,0.0,0.0,0.0,0.0,0.0,0.0,0.0,0.0,0.0252,0.0706,0.0706,0.145,0.2715,0.2715,0.3185,0.4019,0.4019,0.4002,0.4048,0.454,0.4724,0.4768,0.5268,0.5977,0.6509,0.5178,0.5041,0.5572,0.6342,0.6582,0.672,0.7447,0.7678,0.7665,0.7611,0.7597,0.7597,0.7597,0.7597,0.7597,0.7597,0.7597,0.7597,0.7597,0.7597,0.7597,0.7597,0.7597,0.7597,0.7597,0.7516,0.7421,0.7319,0.7143,0.698,0.6871,0.6858,0.6878,0.6932,0.6892,0.6905,0.7014,0.6973,0.6966,0.7021,0.7021,0.7021,0.7021,0.7115,0.717,0.717,0.7692,0.8019,0.8176,0.944,1.014,1.026,1.1169,1.1811,0.0,0.0,0.0,0.0,0.0,0.0,0.0,0.0,0.0,0.0,0.0,0.0,0.0,0.0,0.0,0.0,0.0,0.0,0.0,0.0,0.0,0.0,0.0,0.0,0.0,0.0,0.0,0.0,0.0,0.0,0.0,0.0,0.0,0.0,0.0,0.0,0.0,0.0,0.005,0.0101,0.0101,0.0806,0.2113,0.2113,0.2814,0.4114,0.4114,0.4168,0.4214,0.4214,0.4214,0.4318,0.5632,0.6137,0.6282,0.7547,0.7995,0.7839,0.6531,0.6936,0.7988,0.7988,0.7988,0.7961,0.7868,0.7821,0.7794,0.7658,0.7624,0.7624,0.7624,0.7624,0.7624,0.7624,0.7624,0.7624,0.7624,0.7624,0.7624,0.7624,0.7624,0.7617,0.7611,0.7611,0.7611,0.7604,0.7597,0.7495,0.7159,0.7119,0.7217,0.7366,0.7251,0.7233,0.7577,0.7468,0.7448,0.759,0.7597,0.7644,0.7691,0.7644,0.7644,0.7691,0.8877,0.952,0.9537,1.0915,1.1614,1.1635,1.1807,1.257,0.0,0.0,0.0,0.0,0.0,0.0,0.0,0.0,0.0,0.0,0.0,0.0,0.0,0.0,0.0,0.0,0.0,0.0,0.0,0.0,0.0,0.0,0.0,0.0,0.0,0.0,0.0,0.0,0.0,0.0,0.0,0.0,0.0,0.0,0.0,0.0,0.0,0.0,0.0504,0.1511,0.1511,0.2213,0.3466,0.3466,0.4218,0.5477,0.5477,0.6077,0.698,0.698,0.698,0.7042,0.7503,0.7629,0.7553,0.8066,0.814,0.7939,0.759,0.7739,0.7988,0.7988,0.7988,0.7982,0.7941,0.7934,0.7928,0.7887,0.788,0.788,0.788,0.788,0.788,0.788,0.788,0.788,0.788,0.788,0.788,0.788,0.788,0.784,0.778,0.7753,0.7719,0.7617,0.7597,0.757,0.7489,0.7482,0.7495,0.7536,0.7509,0.7516,0.759,0.7563,0.7556,0.7597,0.7597,0.8013,0.8971,0.8106,0.8059,0.9017,0.9334,0.9588,0.9733,1.2041,1.3169,1.3294,1.4277,1.4943,0.0,0.0,0.0,0.0,0.0,0.0,0.0,0.0,0.0,0.0,0.0,0.0,0.0,0.0,0.0,0.0,0.0,0.0,0.0,0.0,0.0,0.0,0.0,0.0,0.0,0.0,0.0,0.0,0.0,0.0,0.0,0.0,0.0,0.0,0.0,0.0304,0.097,0.0978,0.1702,0.3091,0.3091,0.3808,0.509,0.509,0.5811,0.71,0.0,0.7514,0.8235,0.8235,0.8235,0.8241,0.833,0.8309,0.8241,0.833,0.8309,0.8235,0.8235,0.8235,0.8221,0.816,0.814,0.8153,0.8214,0.8235,0.8235,0.8235,0.8235,0.8235,0.8235,0.8235,0.8235,0.8235,0.8235,0.8235,0.8235,0.8235,0.8214,0.8153,0.8035,0.7961,0.7923,0.7909,0.7882,0.7807,0.7794,0.7794,0.7794,0.7678,0.7624,0.7685,0.7638,0.7651,0.778,0.7733,0.7719,0.7787,0.7794,0.8076,0.8829,0.8741,0.8973,0.9728,1.0849,1.1475,1.1604,1.3625,1.4656,1.4758,1.5486,1.5784,0.0,0.0,0.0,0.0,0.0,0.0,0.0,0.0,0.0,0.0,0.0,0.0,0.0,0.0,0.0,0.0,0.0,0.0,0.0,0.0,0.0,0.0,0.0,0.0,0.0,0.0,0.0,0.0,0.0,0.0,0.0,0.0,0.0101,0.0305,0.0508,0.1228,0.2492,0.2531,0.3292,0.4774,0.4774,0.5461,0.6785,0.6785,0.7422,0.8479,0.0,0.0,0.8479,0.8479,0.8479,0.8486,0.8506,0.8499,0.8486,0.8506,0.8499,0.8479,0.8479,0.8479,0.8459,0.8336,0.8347,0.8374,0.8445,0.8479,0.8479,0.8479,0.8479,0.8479,0.8479,0.8479,0.8479,0.8479,0.8479,0.8479,0.8479,0.8479,0.8445,0.8374,0.8187,0.8042,0.8022,0.8022,0.8015,0.7995,0.7988,0.7988,0.7988,0.7814,0.7706,0.7828,0.7733,0.7808,0.8209,0.8161,0.8237,0.852,0.8528,0.8577,0.8775,0.9756,1.0337,1.0534,1.2764,1.392,1.392,1.5188,1.5784,1.5784,1.5784,1.5784,0.0,0.0,0.0,0.0,0.0,0.0,0.0,0.0,0.0,0.0,0.0,0.0,0.0,0.0,0.0,0.0,0.0,0.0,0.0,0.0,0.0,0.0,0.0,0.0,0.0,0.0,0.0,0.0,0.0,0.0,0.0,0.0,0.0572,0.179,0.3053,0.3844,0.412,0.408,0.4774,0.6147,0.6147,0.6837,0.8164,0.8164,0.8269,0.8479,0.8479,0.0,0.8479,0.8479,0.8479,0.8492,0.8621,0.8594,0.8499,0.8621,0.8587,0.8479,0.8479,0.8479,0.8479,0.8452,0.8445,0.8452,0.8472,0.8479,0.8479,0.8479,0.8479,0.8479,0.8479,0.8479,0.8479,0.8479,0.8479,0.8479,0.8479,0.8479,0.8472,0.8452,0.8425,0.837,0.8248,0.8228,0.8187,0.8008,0.7988,0.7988,0.7988,0.7948,0.7921,0.7948,0.7928,0.8421,0.955,0.9624,1.0058,1.1161,1.1219,1.1697,1.2802,1.2037,1.2086,1.3199,1.368,1.392,1.392,1.5188,1.5784,1.5784,1.5784,1.5784,0.0,0.0,0.0,0.0,0.0,0.0,0.0,0.0,0.0,0.0,0.0,0.0,0.0,0.0,0.0,0.0,0.0,0.0,0.0,0.0,0.0,0.0,0.0,0.0,0.0,0.0,0.0,0.0,0.0,0.072,0.0051,0.0719,0.1826,0.3342,0.4123,0.4893,0.5643,0.5642,0.6374,0.7738,0.7738,0.8069,0.8716,0.8716,0.8716,0.8716,0.8716,0.0,0.8716,0.8716,0.8716,0.8723,0.8798,0.8784,0.873,0.8804,0.8784,0.8716,0.8716,0.8716,0.8716,0.8716,0.8669,0.8615,0.8696,0.8716,0.8716,0.8716,0.8716,0.8716,0.8716,0.8716,0.8716,0.8716,0.8716,0.8716,0.8716,0.8594,0.8479,0.8479,0.8425,0.835,0.8333,0.832,0.8248,0.8174,0.8685,0.9023,0.9023,0.9788,0.9954,0.913,0.9091,0.9655,1.0886,1.0974,1.1268,1.1853,1.1901,1.2183,1.2813,1.2909,1.3247,1.3872,1.4555,1.4902,1.4902,1.5486,1.5784,1.5784,1.5784,1.5784,0.0,0.0,0.0,0.0,0.0,0.0,0.0,0.0,0.0,0.0,0.0,0.0,0.0,0.0,0.0,0.0,0.0,0.0,0.0,0.0,0.0,0.0,0.0,0.0,0.0,0.0,0.0,0.0,0.0,0.0,0.097,0.2323,0.3674,0.4931,0.5272,0.6023,0.7171,0.7155,0.7765,0.8885,0.8885,0.8885,0.8885,0.8885,0.8885,0.8885,0.8885,0.0,0.0,0.8885,0.8885,0.8885,0.8885,0.8885,0.8885,0.8885,0.8885,0.8885,0.8885,0.8885,0.8885,0.8885,0.8804,0.8784,0.8844,0.8885,0.8885,0.8885,0.8885,0.8885,0.8885,0.8885,0.8885,0.8885,0.8858,0.8838,0.8838,0.8676,0.8479,0.8479,0.8418,0.8446,0.8685,0.875,0.8801,0.9034,0.9846,1.0453,1.0497,1.1665,1.2084,1.1114,1.0797,1.1157,1.2325,1.236,1.2425,1.2727,1.2727,1.2727,1.2727,1.374,1.4316,1.4316,1.5296,1.5858,1.5925,1.5858,1.5851,1.5971,1.5952,1.5952,0.0,0.0,0.0,0.0,0.0,0.0,0.0,0.0,0.0,0.0,0.0,0.0,0.0,0.0,0.0,0.0,0.0,0.0,0.0,0.0,0.0,0.0,0.0,0.0,0.0,0.0,0.0,0.0,0.0,0.0,0.3853,0.5286,0.6231,0.6498,0.7796,0.8582,0.8692,0.8706,0.8768,0.8885,0.8885,0.8885,0.8885,0.8885,0.8885,0.8885,0.8885,0.0,0.0,0.8885,0.8885,0.8885,0.8885,0.8885,0.8885,0.8885,0.8885,0.8885,0.8885,0.8885,0.8885,0.8885,0.8871,0.8865,0.8878,0.8885,0.8885,0.8885,0.8885,0.8885,0.8885,0.8885,0.8885,0.8885,0.8832,0.873,0.873,0.8601,0.8479,0.8479,0.8581,0.8945,0.9865,1.0151,1.051,1.1452,1.1668,1.1825,1.2124,1.2435,1.3016,1.4212,1.3039,1.2712,1.3978,1.3868,1.422,1.5391,1.5439,1.5439,1.5439,1.5534,1.5642,1.5642,1.5737,1.5965,1.6233,1.5965,1.6099,1.662,1.6353,1.6366,0.0,0.0,0.0,0.0,0.0,0.0,0.0,0.0,0.0,0.0,0.0,0.0,0.0,0.0,0.0,0.0,0.0,0.0,0.0,0.0,0.0,0.0,0.0,0.0,0.0,0.0,0.0,0.0,0.0,0.0,0.6834,0.6733,0.7029,0.798,0.8602,0.8885,0.8885,0.8885,0.8885,0.8885,0.8885,0.8885,0.8885,0.8885,0.8885,0.8885,0.8885,0.0,0.0,0.8885,0.8885,0.8885,0.8885,0.8885,0.8885,0.8885,0.8885,0.8885,0.8885,0.8885,0.8885,0.8885,0.8885,0.8885,0.8885,0.8885,0.8885,0.8885,0.8885,0.8885,0.8885,0.8885,0.8858,0.8825,0.8757,0.8682,0.8594,0.9071,0.9512,0.9512,1.0236,1.0955,1.134,1.1438,1.1639,1.2014,1.2656,1.3136,1.3284,1.4211,1.5083,1.5859,1.4616,1.4186,1.5379,1.521,1.5248,1.5784,1.5784,1.5912,1.6086,1.6099,1.6179,1.6353,1.6353,1.642,1.6526,1.642,1.6473,1.67,1.658,1.6593,0.0,0.0,0.0,0.0,0.0,0.0,0.0,0.0,0.0,0.0,0.0,0.0,0.0,0.0,0.0,0.0,0.0,0.0,0.0,0.0,0.0,0.0,0.0,0.0,0.0,0.0,0.0,0.0,0.0,0.0,0.0,0.7822,0.7834,0.8878,0.8885,0.8885,0.8885,0.8885,0.8885,0.8885,0.8885,0.8885,0.8885,0.8885,0.8885,0.8885,0.0,0.0,0.0,0.8885,0.8885,0.8885,0.8885,0.8885,0.8885,0.8885,0.8885,0.8885,0.8885,0.8885,0.8885,0.8885,0.8885,0.8885,0.8885,0.8885,0.8885,0.8885,0.8885,0.8871,0.8824,0.8817,0.8845,0.8737,0.8902,0.912,0.9005,0.9916,1.068,1.068,1.1525,1.2293,1.2628,1.272,1.2911,1.3369,1.4107,1.4691,1.4851,1.5851,1.6697,1.6927,1.6011,1.5645,1.637,1.6046,1.5824,1.5952,1.5965,1.6099,1.6393,1.6393,1.65,1.67,1.67,1.6754,1.6834,1.6754,1.6794,1.6967,1.6874,1.6887,0.0,0.0,0.0,0.0,0.0,0.0,0.0,0.0,0.0,0.0,0.0,0.0,0.0,0.0,0.0,0.0,0.0,0.0,0.0,0.0,0.0,0.0,0.0,0.0,0.0,0.0,0.0,0.0,0.0,0.0,0.0,0.8797,0.8878,0.8885,0.8885,0.8885,0.8885,0.8885,0.8885,0.8885,0.8885,0.8885,0.8885,0.8885,0.8885,0.0,0.0,0.0,0.0,0.8885,0.8885,0.8885,0.8885,0.8885,0.8885,0.8885,0.8885,0.8885,0.8885,0.8885,0.8885,0.8885,0.8885,0.8885,0.8885,0.8885,0.8885,0.8885,0.8885,0.8851,0.875,0.871,0.871,0.871,0.9458,1.0163,1.0163,1.1064,1.1901,1.1901,1.2073,1.254,1.3678,1.3998,1.4568,1.6015,1.6273,1.6473,1.7112,1.7192,1.73,1.7542,1.7315,1.7021,1.6727,1.6166,1.5952,1.6246,1.6273,1.6393,1.6687,1.67,1.67,1.67,1.67,1.6847,1.7192,1.6847,1.7007,1.7569,1.7326,1.7353,0.0,0.0,0.0,0.0,0.0,0.0,0.0,0.0,0.0,0.0,0.0,0.0,0.0,0.0,0.0,0.0,0.0,0.0,0.0,0.0,0.0,0.0,0.0,0.0,0.0,0.0,0.0,0.0,0.0,0.0,0.0,0.8858,0.8885,0.8885,0.8885,0.8885,0.8885,0.8885,0.8885,0.8885,0.8885,0.8885,0.8885,0.8885,0.0,0.0,0.0,0.0,0.0,0.8885,0.8885,0.8885,0.8885,0.8885,0.8885,0.8885,0.8885,0.8885,0.8885,0.8885,0.8885,0.8885,0.8885,0.8885,0.8885,0.8885,0.8885,0.8885,0.9563,1.0262,1.0107,1.0777,1.1477,1.1385,1.162,1.1836,1.1702,1.266,1.3543,1.3543,1.4311,1.5146,1.5703,1.5842,1.6056,1.6517,1.6567,1.6633,1.682,1.6847,1.6954,1.73,1.7072,1.6887,1.7058,1.6647,1.6473,1.6567,1.6567,1.67,1.7045,1.7058,1.7152,1.7301,1.7301,1.7355,1.7448,1.7355,1.7395,1.7582,1.7488,1.7609,0.0,0.0,0.0,0.0,0.0,0.0,0.0,0.0,0.0,0.0,0.0,0.0,0.0,0.0,0.0,0.0,0.0,0.0,0.0,0.0,0.0,0.0,0.0,0.0,0.0,0.0,0.0,0.0,0.0,0.0,0.0,0.8885,0.8885,0.8885,0.8885,0.8885,0.8885,0.8885,0.8885,0.8885,0.8885,0.8885,0.8885,0.8885,0.0,0.0,0.0,0.0,0.0,0.8885,0.8885,0.8885,0.8885,0.8885,0.8885,0.8885,0.8885,0.8885,0.8885,0.8885,0.8885,0.8885,0.9265,0.9754,0.9754,0.9332,0.8948,0.9421,1.0121,1.0826,1.13,1.2078,1.2717,1.2628,1.3058,1.3424,1.3333,1.4313,1.5208,1.5208,1.5877,1.6486,1.6673,1.67,1.674,1.686,1.6874,1.6914,1.7021,1.7034,1.7114,1.734,1.7141,1.7114,1.7353,1.6941,1.6754,1.686,1.6874,1.7058,1.7353,1.7367,1.7447,1.7582,1.7582,1.7582,1.7582,1.7702,1.7756,1.7756,1.7876,1.8023,0.0,0.0,0.0,0.0,0.0,0.0,0.0,0.0,0.0,0.0,0.0,0.005,0.0101,0.005,0.0051,0.0152,0.0,0.0,0.0,0.0,0.0,0.0,0.0,0.0,0.0,0.0,0.0,0.0,0.0,0.0,0.0,0.8885,0.8885,0.8885,0.8885,0.8885,0.8885,0.8885,0.8885,0.8885,0.8885,0.8885,0.8885,0.8885,0.0,0.0,0.0,0.0,0.0,0.8885,0.8885,0.8885,0.8885,0.8885,0.8885,0.8885,0.8885,0.8885,0.8885,0.8885,0.894,0.9051,1.0021,1.1265,1.1248,1.0217,0.9265,1.0523,1.0828,1.1027,1.2412,1.2874,1.2925,1.2925,1.3948,1.4975,1.4975,1.591,1.674,1.674,1.674,1.674,1.6767,1.6767,1.686,1.7192,1.7233,1.7326,1.7542,1.7582,1.7582,1.7582,1.7582,1.7582,1.7582,1.7088,1.6887,1.7219,1.7233,1.7353,1.7569,1.7582,1.7582,1.7582,1.7609,1.7622,1.7649,1.7943,1.8022,1.8035,1.8357,1.8504,0.0,0.0,0.0,0.0,0.0,0.0,0.0,0.0,0.0,0.0,0.0,0.0,0.0,0.0,0.0,0.0,0.0,0.0,0.0,0.0,0.0,0.0,0.0,0.0,0.0,0.0,0.0,0.0,0.0,0.0,0.0,0.8885,0.8885,0.8885,0.8885,0.8885,0.8885,0.8885,0.8885,0.8885,0.8885,0.8885,0.8885,0.8885,0.0,0.0,0.0,0.0,0.8885,0.8885,0.8885,0.8885,0.8885,0.8885,0.8885,0.8885,0.8885,0.8885,0.8885,0.8885,0.9099,1.0241,1.1592,1.2749,1.2573,1.2283,1.2106,1.2539,1.3361,1.4112,1.4372,1.5263,1.6099,1.6099,1.6356,1.6625,1.6625,1.6881,1.7099,1.7099,1.7099,1.7166,1.7341,1.7382,1.7395,1.7475,1.7527,1.7502,1.7569,1.7582,1.7582,1.7582,1.7582,1.7582,1.7582,1.7448,1.7408,1.7475,1.7527,1.7515,1.7582,1.7582,1.7582,1.7582,1.7809,1.805,1.8277,1.8357,1.8384,1.8384,1.8464,1.8611,0.0,0.0,0.0,0.0,0.0,0.0,0.0,0.0,0.0,0.0,0.0,0.0,0.0,0.0,0.0,0.0,0.0,0.0,0.0,0.0,0.0,0.0,0.0,0.0,0.0,0.0,0.0,0.0,0.0,0.0,0.0,0.8885,0.8885,0.8885,0.8885,0.8885,0.8885,0.8885,0.8885,0.8885,0.8885,0.8885,0.8885,0.8885,0.8885,0.0,0.0,0.0,0.8885,0.8885,0.8885,0.8885,0.8885,0.8885,0.8885,0.8885,0.8885,0.8989,0.9699,1.0351,1.1055,1.1864,1.3102,1.4266,1.4124,1.4567,1.5001,1.4336,1.4589,1.5152,1.5853,1.6613,1.7206,1.7206,1.73,1.7393,1.7393,1.7393,1.7393,1.7393,1.7393,1.7447,1.7555,1.7582,1.7582,1.7582,1.7582,1.7635,1.7782,1.7796,1.7849,1.7983,1.7996,1.7996,1.7996,1.7996,1.7943,1.7809,1.7796,1.7849,1.7996,1.7996,1.7996,1.7996,1.817,1.833,1.849,1.8624,1.8691,1.8691,1.8824,1.8971,0.0,0.0,0.0,0.0,0.0,0.0049,0.0,0.0,0.0,0.0,0.0,0.0,0.0,0.0,0.0,0.0,0.0,0.0,0.0,0.0,0.0,0.0,0.0,0.0,0.0,0.0,0.0,0.0,0.0,0.0,0.0,0.8885,0.8885,0.8885,0.8885,0.8885,0.8885,0.8885,0.8885,0.8885,0.8885,0.8885,0.8885,0.8885,0.8885,0.0,0.0,0.0,0.8885,0.8885,0.8885,0.8885,0.8885,0.8885,0.8885,0.8885,0.9044,0.9423,1.0945,1.2408,1.3642,1.3642,1.4556,1.5743,1.5743,1.6605,1.7318,1.5962,1.5406,1.554,1.6884,1.7259,1.7259,1.7259,1.7447,1.7582,1.7582,1.7582,1.7582,1.7582,1.7622,1.7649,1.7649,1.7689,1.7716,1.7716,1.7716,1.7822,1.8022,1.8062,1.821,1.8464,1.849,1.849,1.849,1.849,1.8397,1.8142,1.8089,1.8169,1.8477,1.849,1.8517,1.8557,1.8557,1.8584,1.8624,1.8878,1.8985,1.8998,1.9252,1.943,0.0,0.0,0.0,0.0,0.0,0.0283,0.0,0.0,0.0,0.0,0.0,0.0,0.0,0.0,0.0,0.0,0.0,0.0,0.0,0.0,0.0,0.0,0.0,0.0,0.0,0.0,0.0,0.0,0.0,0.0,0.0,0.8885,0.8885,0.8885,0.8885,0.8885,0.8885,0.8885,0.8885,0.8885,0.8885,0.8885,0.8885,0.8885,0.8885,0.0,0.0,0.8885,0.8885,0.8885,0.8885,0.8885,0.8885,0.8885,0.8885,0.8885,0.9699,1.0945,1.2453,1.3911,1.5091,1.5091,1.6062,1.7252,1.7252,1.7424,1.7569,1.7318,1.7213,1.7239,1.7449,1.7515,1.7515,1.7515,1.7555,1.7582,1.7582,1.7582,1.7582,1.7582,1.7796,1.7916,1.7916,1.8183,1.8357,1.8357,1.8357,1.837,1.8424,1.8424,1.8437,1.849,1.849,1.849,1.849,1.849,1.8571,1.8771,1.8557,1.8437,1.849,1.849,1.8611,1.8851,1.8865,1.8985,1.9239,1.9279,1.9305,1.9305,1.9403,1.943,0.0,0.0,0.0188,0.0892,0.1098,0.1411,0.0,0.0,0.0,0.0,0.0,0.0,0.0,0.0,0.0,0.0,0.0,0.0,0.0,0.0,0.0,0.0,0.0,0.0,0.0,0.0,0.0,0.0,0.0,0.0,0.0,0.0,0.8885,0.8885,0.8885,0.8885,0.8885,0.8885,0.8885,0.8885,0.8885,0.8885,0.8885,0.8885,0.8885,0.8885,0.0,0.8885,0.8885,0.8885,0.8885,0.8885,0.8885,0.8885,0.8885,0.8885,1.0351,1.2408,1.3048,1.4716,1.6605,1.6605,1.7041,1.7582,1.7582,1.7582,1.7582,1.7582,1.7582,1.7582,1.7582,1.7582,1.7582,1.7582,1.7582,1.7582,1.7582,1.7582,1.7622,1.7782,1.7943,1.8049,1.8263,1.8397,1.849,1.849,1.849,1.8544,1.8704,1.8731,1.8784,1.8945,1.8971,1.8971,1.8971,1.8971,1.8958,1.8918,1.8945,1.8971,1.8971,1.8971,1.9025,1.9158,1.9158,1.9225,1.943,1.943,1.943,1.943,1.943,1.943,0.0,0.0,0.0372,0.0,0.0,0.0,0.0,0.0,0.0,0.0,0.0,0.0,0.0,0.0,0.0,0.0,0.0,0.0,0.0,0.0,0.0,0.0,0.0,0.0,0.0,0.0,0.0,0.0,0.0,0.0,0.0,0.0,0.8885,0.8885,0.8885,0.8885,0.8885,0.8885,0.8885,0.8885,0.8885,0.8885,0.8885,0.8885,0.8885,0.8885,0.8885,0.8885,0.8885,0.8885,0.8885,0.8885,0.8885,0.8885,0.894,0.9265,1.1055,1.3372,1.3696,1.5476,1.7582,1.7582,1.7582,1.7582,1.7582,1.7582,1.7582,1.7582,1.7582,1.7582,1.7582,1.7582,1.7582,1.7582,1.7635,1.7689,1.7689,1.7742,1.7862,1.8076,1.8196,1.8275,1.8557,1.8651,1.8691,1.8691,1.8691,1.8771,1.8998,1.9025,1.9118,1.9345,1.943,1.943,1.943,1.943,1.9265,1.9038,1.9239,1.943,1.943,1.943,1.943,1.943,1.943,1.943,1.943,1.943,1.9399,1.9466,1.9466,1.9506,0.0,0.0,0.0604,0.3072,0.0,0.0,0.0,0.0,0.0,0.0,0.0,0.0,0.0,0.0,0.0,0.0,0.0,0.0,0.0,0.0,0.0,0.0,0.0,0.0,0.0,0.0,0.0,0.0,0.0,0.0,0.0,0.0,0.0,0.8885,0.8885,0.8885,0.8885,0.8885,0.8885,0.8885,0.8885,0.8885,0.8885,0.8885,0.8885,0.8885,0.8885,0.8885,0.8885,0.8885,0.8885,0.8885,0.8885,0.8885,0.9044,1.046,1.1919,1.348,1.4824,1.6287,1.7582,1.7582,1.7582,1.7582,1.7582,1.7582,1.7582,1.7582,1.7582,1.7582,1.7582,1.7582,1.7582,1.7582,1.7809,1.7955,1.7955,1.8237,1.8437,1.845,1.8677,1.8865,1.8891,1.9118,1.9363,1.9363,1.9363,1.9319,1.9332,1.9332,1.9345,1.9417,1.943,1.943,1.943,1.943,1.9417,1.939,1.9417,1.943,1.943,1.943,1.943,1.943,1.943,1.943,1.943,1.943,1.9506,1.9773,1.9773,1.9907,0.0905,0.119,0.1856,0.4391,0.0,0.0,0.0,0.0,0.0,0.0,0.0,0.0,0.0,0.0,0.0,0.0,0.0,0.0,0.0,0.0,0.0,0.0,0.0,0.0,0.0,0.0,0.0,0.0,0.0,0.0,0.0,0.0,0.0,0.8885,0.8885,0.8885,0.8885,0.8885,0.8885,0.8885,0.8885,0.8885,0.8885,0.8885,0.8885,0.8885,0.8885,0.8885,0.8885,0.8885,0.8885,0.8885,0.8885,0.8885,0.9099,1.0562,1.2028,1.348,1.4931,1.6393,1.7582,1.7582,1.7582,1.7582,1.7582,1.7582,1.7622,1.7822,1.7876,1.7876,1.7876,1.7876,1.7916,1.8103,1.8237,1.833,1.833,1.841,1.8544,1.8731,1.8851,1.8985,1.9172,1.9292,1.943,1.943,1.943,1.943,1.943,1.943,1.943,1.943,1.9533,1.9639,1.9639,1.98,1.9907,1.9907,1.9559,1.943,1.943,1.943,1.9452,1.9639,1.9639,1.972,1.9907,1.9907,1.996,2.0067,2.0067,2.0134,0.2057,0.244,0.3029,0.0,0.0,0.0,0.0,0.0,0.0,0.0,0.0,0.0,0.0,0.0,0.0,0.0,0.0,0.0,0.0,0.0,0.0,0.0,0.0,0.0,0.0,0.0,0.0,0.0,0.0,0.0,0.0,0.0,0.0,0.0,0.8885,0.8885,0.8885,0.8885,0.8885,0.8885,0.8885,0.8885,0.8885,0.8885,0.8885,0.8885,0.8885,0.8885,0.8885,0.8885,0.9154,0.9588,0.9588,0.9864,1.0406,1.1428,1.2724,1.4126,1.5091,1.6393,1.7582,1.7582,1.7582,1.7582,1.7582,1.7649,1.7769,1.7929,1.8062,1.8155,1.8249,1.8195,1.8237,1.8437,1.8557,1.8624,1.8624,1.8704,1.8824,1.9025,1.9065,1.9132,1.9332,1.943,1.943,1.943,1.943,1.943,1.943,1.9452,1.9546,1.9626,1.9813,1.9933,1.9933,2.012,2.0167,2.0167,1.9867,1.9639,1.9639,1.9546,1.9639,1.9933,1.9933,2.004,2.0167,2.0167,2.0281,2.0374,2.0374,2.0414,0.3304,0.3616,0.0,0.0,0.0,0.0,0.0,0.0,0.0,0.0,0.0,0.0,0.0,0.0,0.0,0.0,0.0,0.0,0.0,0.0,0.0,0.0,0.0,0.0,0.0,0.0,0.0,0.0,0.0,0.0,0.0,0.0,0.0,0.0,0.8885,0.8885,0.8885,0.8885,0.8885,0.8885,0.8885,0.8885,0.8885,0.8885,0.8885,0.8885,0.8885,0.8885,0.8885,0.894,0.9809,1.1109,1.1109,1.2028,1.3318,1.3318,1.418,1.5411,1.5423,1.6393,1.7582,1.7582,1.7582,1.7582,1.7582,1.7809,1.7995,1.7995,1.8263,1.8557,1.8851,1.8718,1.8504,1.8504,1.8718,1.8931,1.8931,1.9158,1.943,1.943,1.943,1.943,1.943,1.943,1.943,1.943,1.943,1.943,1.943,1.9626,1.992,2.0201,2.018,2.018,2.018,2.0241,2.0241,2.0241,2.0241,2.018,2.0167,1.996,1.9947,2.0167,2.018,2.0241,2.0241,2.0241,2.0388,2.0681,2.0681,2.0842,0.4554,0.0,0.0,0.0,0.0,0.0,0.0,0.0,0.0,0.0,0.0,0.0,0.0,0.0,0.0,0.0,0.0,0.0,0.0,0.0,0.0,0.0,0.0,0.0,0.0,0.0,0.0,0.0,0.0,0.0,0.0,0.0,0.0,0.0,0.8885,0.8885,0.8885,0.8885,0.8885,0.8885,0.8885,0.8885,0.8885,0.8885,0.8885,0.8885,0.8885,0.8885,0.8995,1.0021,1.0726,1.121,1.2245,1.2886,1.3426,1.4395,1.5037,1.553,1.6605,1.7252,1.7582,1.7582,1.7582,1.7622,1.7836,1.7916,1.8075,1.8488,1.8731,1.8865,1.9158,1.9172,1.9105,1.9105,1.9172,1.9239,1.9239,1.9305,1.943,1.943,1.943,1.943,1.943,1.943,1.943,1.943,1.943,1.9497,1.9639,1.992,2.0134,2.0167,2.0414,2.0548,2.0548,2.0735,2.0855,2.0855,2.0655,2.0454,2.0241,2.0147,2.0241,2.0535,2.0548,2.0641,2.0855,2.0855,2.0895,2.0975,2.0975,2.1029,0.5924,0.0,0.0,0.0,0.0,0.0,0.0,0.0,0.0,0.0,0.0,0.0,0.0,0.0,0.0,0.0,0.0,0.0,0.0,0.0,0.0,0.0,0.0,0.0,0.0,0.0,0.0,0.0,0.0,0.0,0.0,0.0,0.0,0.0,0.8885,0.8885,0.8885,0.8885,0.8885,0.8885,0.8885,0.8885,0.8885,0.8885,0.8885,0.8885,0.8885,0.921,0.9864,1.0726,1.1755,1.2886,1.3804,1.4502,1.5091,1.5956,1.6274,1.6393,1.7305,1.7582,1.7582,1.7582,1.7662,1.7796,1.7942,1.8155,1.8408,1.8824,1.9011,1.9145,1.9377,1.943,1.943,1.943,1.943,1.943,1.943,1.943,1.943,1.943,1.943,1.943,1.943,1.943,1.947,1.9519,1.9639,1.9813,2.0107,2.0307,2.0454,2.0575,2.0748,2.0855,2.0855,2.1002,2.1109,2.1109,2.0949,2.0762,2.0588,2.0468,2.0548,2.0842,2.0855,2.0935,2.1109,2.1109,2.1109,2.1109,2.1109,2.1109,0.0,0.0,0.0,0.0,0.0,0.0,0.0,0.0,0.0,0.0,0.0,0.0,0.0,0.0,0.0,0.0,0.0,0.0,0.0,0.0,0.0,0.0,0.0,0.0,0.0,0.0,0.0,0.0,0.0,0.0,0.0,0.0,0.0,0.0,0.8885,0.8885,0.8885,0.8885,0.8885,0.0,0.8885,0.8885,0.8885,0.8885,0.8885,0.8885,0.8885,0.9754,1.1109,1.1265,1.294,1.5423,1.553,1.6446,1.7582,1.7582,1.7582,1.7582,1.7582,1.7582,1.7582,1.7609,1.7809,1.8009,1.8049,1.8448,1.8931,1.8958,1.9158,1.943,1.943,1.943,1.943,1.943,1.943,1.943,1.943,1.943,1.943,1.943,1.943,1.943,1.9399,1.947,1.9506,1.98,2.008,2.0374,2.0641,2.0695,2.0815,2.1082,2.1109,2.1109,2.1109,2.1109,2.1109,2.1109,2.1109,2.1109,2.1109,2.0855,2.0842,2.1109,2.1109,2.1109,2.1109,2.1109,2.1109,2.1109,2.1109,2.1109,0.0,0.0,0.0,0.0,0.0,0.0,0.0,0.0,0.0,0.0,0.0,0.0,0.0,0.0,0.0,0.0,0.0,0.0,0.0,0.0,0.0,0.0,0.0,0.0,0.0,0.0,0.0,0.0,0.0,0.0,0.0,0.0,0.0,0.8885,0.8885,0.8885,0.8885,0.8885,0.8885,0.0,0.8885,0.8885,0.8885,0.8885,0.8885,0.8885,0.8885,0.9754,1.1219,1.2354,1.3857,1.553,1.6658,1.7318,1.7582,1.7582,1.7582,1.7582,1.7582,1.7582,1.7622,1.7862,1.7942,1.8075,1.8542,1.8824,1.8971,1.9199,1.9319,1.943,1.943,1.943,1.943,1.943,1.943,1.943,1.943,1.943,1.943,1.943,1.943,1.9497,1.9666,1.9706,1.98,2.0094,2.0388,2.0601,2.0668,2.0869,2.1042,2.1096,2.1109,2.1109,2.1109,2.1109,2.1109,2.1109,2.1109,2.1109,2.1109,2.1042,2.1042,2.1109,2.1109,2.1109,2.1109,2.1109,2.1109,2.1109,2.1109,2.1109,0.0,0.0,0.0,0.0,0.0,0.0,0.0,0.0,0.0,0.0,0.0,0.0,0.0,0.0,0.0,0.0,0.0,0.0,0.0,0.0,0.0,0.0,0.0,0.0,0.0,0.0,0.0,0.0,0.0,0.0,0.0,0.8885,0.8885,0.8885,0.8885,0.8885,0.8885,0.8885,0.8885,0.8885,0.8885,0.8885,0.8885,0.8885,0.8885,0.894,0.9644,1.0781,1.2299,1.3696,1.5144,1.6552,1.7305,1.7582,1.7582,1.7582,1.7582,1.7582,1.7582,1.7675,1.7836,1.7942,1.8182,1.8475,1.8781,1.9025,1.9172,1.9319,1.943,1.943,1.943,1.943,1.943,1.943,1.943,1.943,1.943,1.943,1.943,1.943,1.9479,1.9626,1.9773,2.004,2.0267,2.0428,2.0695,2.0882,2.0882,2.1015,2.1109,2.1109,2.1109,2.1109,2.1109,2.1109,2.1109,2.1109,2.1109,2.1109,2.1109,2.1109,2.1109,2.1109,2.1109,2.1109,2.1109,2.1109,2.1109,2.1109,2.1109,2.1109,0.0,0.0,0.0,0.0,0.0,0.0,0.0,0.0,0.0,0.0,0.0,0.0,0.0,0.0,0.0,0.0,0.0,0.0,0.0,0.0,0.0,0.0,0.0,0.0,0.0,0.0,0.0,0.0,0.0,0.0,0.8885,0.8885,0.8885,0.8885,0.8885,0.8885,0.8885,0.8885,0.8885,0.8885,0.8885,0.9044,0.9265,0.9265,0.9265,0.9375,1.0562,1.2082,1.375,1.4931,1.6274,1.7582,1.7582,1.7582,1.7582,1.7582,1.7622,1.7662,1.7662,1.7862,1.8075,1.8129,1.8475,1.8931,1.8985,1.9172,1.943,1.943,1.943,1.943,1.943,1.943,1.943,1.943,1.947,1.9484,1.943,1.947,1.9439,1.9439,1.972,1.9947,1.9947,2.0401,2.0748,2.0748,2.0949,2.1109,2.1109,2.1109,2.1109,2.1109,2.1109,2.1109,2.1109,2.1109,2.1109,2.1109,2.1109,2.1109,2.1109,2.1109,2.1109,2.1109,2.1109,2.1109,2.1109,2.1109,2.1109,2.1109,2.1109,2.1109,0.0,0.0,0.0,0.0,0.0,0.0,0.0,0.0,0.0,0.0,0.0,0.0,0.0,0.0,0.0,0.0,0.0,0.0,0.0,0.0,0.0,0.0,0.0,0.0,0.0,0.0,0.0,0.0,0.0,0.0,0.8885,0.8885,0.8885,0.8885,0.8885,0.8885,0.8885,0.8885,0.8885,0.8885,0.8885,0.9588,1.0836,1.0836,1.0836,1.0836,1.1,1.2615,1.5144,1.5304,1.6274,1.7582,1.7582,1.7582,1.7582,1.7582,1.7756,1.7929,1.7929,1.8183,1.8477,1.8718,1.8851,1.8971,1.9225,1.9332,1.943,1.943,1.943,1.943,1.943,1.943,1.943,1.943,1.9559,1.9679,1.9426,1.9559,1.9746,1.9746,2.0187,2.0561,2.0561,2.0828,2.1056,2.1056,2.1082,2.1109,2.1109,2.1109,2.1109,2.1109,2.1109,2.1109,2.1109,2.1109,2.1109,2.1109,2.1109,2.1109,2.1109,2.1109,2.1109,2.1109,2.1109,2.1109,2.1109,2.1109,2.1109,2.1109,2.1109,2.1109,0.0,0.0,0.0,0.0,0.0,0.0,0.0,0.0,0.0,0.0,0.0,0.0,0.0,0.0,0.0,0.0,0.0,0.0,0.0,0.0,0.0,0.0,0.0,0.0,0.0,0.0,0.0,0.0,0.0,0.8885,0.8885,0.8885,0.8885,0.8885,0.8885,0.8885,0.8885,0.8885,0.8885,0.8885,0.8885,0.9699,1.1109,1.1109,1.1538,1.2398,1.3156,1.4234,1.5464,1.6287,1.6988,1.7582,1.7582,1.7582,1.7582,1.7582,1.7782,1.7995,1.7995,1.8288,1.8758,1.8878,1.9038,1.9199,1.939,1.943,1.943,1.943,1.943,1.943,1.943,1.9492,1.9613,1.9613,1.9826,2.0013,1.988,1.9947,2.0094,2.0254,2.0508,2.0722,2.0895,2.1029,2.1109,2.1109,2.1109,2.1109,2.1109,2.1109,2.1109,2.1109,2.1109,2.1109,2.1109,2.1109,2.1109,2.1109,2.1109,2.1109,2.1109,2.1109,2.1109,2.1109,2.1109,2.1109,2.1109,2.1109,2.1109,2.1109,2.1283,2.1363,0.0,0.0,0.0,0.0,0.0,0.0,0.0,0.0,0.0,0.0,0.0,0.0,0.0,0.0,0.0,0.0,0.0,0.0,0.0,0.0,0.0,0.0,0.0,0.0,0.0,0.0,0.0,0.0,0.0,0.8885,0.8885,0.8885,0.8885,0.8885,0.8885,0.8885,0.8885,0.8885,0.8885,0.8885,0.9265,1.0241,1.1647,1.2028,1.2994,1.4449,1.5091,1.5636,1.6062,1.7147,1.7582,1.7582,1.7582,1.7582,1.7595,1.7675,1.7889,1.8115,1.8195,1.8611,1.9038,1.9038,1.9185,1.943,1.943,1.943,1.943,1.943,1.9426,1.9479,1.9479,1.9693,1.9907,1.9907,2.0134,2.0347,2.0347,2.0347,2.0428,2.0735,2.0788,2.0855,2.1069,2.1109,2.1109,2.1109,2.1109,2.1109,2.1109,2.1109,2.1109,2.1109,2.1109,2.1109,2.1109,2.1109,2.1149,2.1216,2.1216,2.1256,2.1323,2.1336,2.1336,2.1336,2.1336,2.1256,2.1109,2.1109,2.1149,2.1229,2.1443,2.1655,0.0,0.0,0.0,0.0,0.0,0.0,0.0,0.0,0.0,0.0,0.0,0.0,0.0,0.0,0.0,0.0,0.0,0.0,0.0,0.0,0.0,0.0,0.0,0.0,0.0,0.0,0.0,0.0,0.0,0.8885,0.8885,0.8885,0.8885,0.8885,0.8885,0.8885,0.8885,0.8885,0.8885,0.894,1.0296,1.1755,1.321,1.4556,1.5956,1.7305,1.5956,1.6168,1.7477,1.7582,1.7582,1.7582,1.7582,1.7582,1.7622,1.7916,1.821,1.8504,1.8784,1.9078,1.9345,1.9345,1.9417,1.943,1.943,1.943,1.943,1.943,1.9559,1.9773,1.9773,1.9987,2.0153,2.0153,2.0441,2.0655,2.0655,2.0655,2.0735,2.1029,2.1082,2.1096,2.1109,2.1109,2.1109,2.1109,2.1109,2.1109,2.1109,2.1109,2.1109,2.1109,2.1109,2.1109,2.1109,2.1109,2.1229,2.1574,2.1601,2.1722,2.1924,2.1937,2.1937,2.1937,2.1937,2.167,2.1109,2.1109,2.1256,2.1601,2.1614,2.1762,0.0,0.0,0.0,0.0,0.0,0.0,0.0,0.0,0.0,0.0,0.0,0.0,0.0,0.0,0.0,0.0,0.0,0.0,0.0,0.0,0.0,0.0,0.0,0.0,0.0,0.0,0.0,0.0,0.0,0.0,0.8878,0.879,0.8838,0.8878,0.8885,0.8885,0.8885,0.9864,1.0296,1.0351,1.181,1.3264,1.4663,1.5144,1.6221,1.7582,1.7041,1.7094,1.7582,1.7582,1.7582,1.7582,1.7582,1.7702,1.7889,1.7955,1.8302,1.8784,1.8891,1.9118,1.943,1.943,1.943,1.943,1.943,1.943,1.947,1.9586,1.972,1.984,2.0027,2.0294,2.0561,2.0748,2.0882,2.0949,2.0949,2.0949,2.0989,2.1082,2.1109,2.1109,2.1109,2.1109,2.1109,2.1109,2.1109,2.1109,2.1109,2.1109,2.1109,2.1109,2.1283,2.139,2.139,2.1563,2.171,2.1817,2.183,2.1884,2.1977,2.1991,2.1991,2.1991,2.1991,2.1884,2.167,2.167,2.1724,2.183,2.2017,2.2814,0.0,0.0,0.0,0.0,0.0,0.0,0.0,0.0,0.0,0.0,0.0,0.0,0.0,0.0,0.0,0.0,0.0,0.0,0.0,0.0,0.0,0.0,0.0,0.0,0.0,0.0,0.0,0.0,0.0,0.0,0.8784,0.8737,0.8777,0.8878,0.8885,0.9154,0.9644,1.0617,1.1374,1.1864,1.3318,1.4502,1.5423,1.5902,1.6658,1.7582,1.7582,1.7582,1.7582,1.7582,1.7582,1.7595,1.7702,1.7862,1.8022,1.8209,1.8528,1.8945,1.9038,1.9199,1.943,1.943,1.943,1.943,1.943,1.9439,1.9546,1.9746,1.9947,2.0134,2.0334,2.0601,2.0869,2.1069,2.1109,2.1109,2.1109,2.1109,2.1109,2.1109,2.1109,2.1109,2.1109,2.1109,2.1109,2.1109,2.1109,2.1109,2.1109,2.1109,2.1149,2.1243,2.1494,2.1655,2.1762,2.1871,2.2031,2.2124,2.2124,2.2178,2.2271,2.2285,2.2285,2.2285,2.2285,2.2285,2.2271,2.2084,2.2031,2.2138,2.2325,2.3451,0.0,0.0,0.0,0.0,0.0,0.0,0.0,0.0,0.0,0.0,0.0,0.0,0.0,0.0,0.0,0.0,0.0,0.0,0.0,0.0,0.0,0.0,0.0,0.0,0.0,0.0,0.0,0.0,0.0,0.8648,0.8499,0.8628,0.8777,0.8927,0.8989,0.9699,1.1164,1.1219,1.1973,1.3372,1.477,1.5464,1.553,1.6935,1.7582,1.7582,1.7582,1.7582,1.7582,1.7582,1.7582,1.7609,1.7929,1.7995,1.8075,1.8661,1.8931,1.8985,1.9265,1.943,1.943,1.943,1.943,1.943,1.943,1.9573,1.98,1.9826,2.0241,2.0681,2.0681,2.0895,2.1109,2.1109,2.1109,2.1109,2.1109,2.1109,2.1109,2.1109,2.1109,2.1109,2.1109,2.1109,2.1109,2.1122,2.1122,2.1122,2.1136,2.1122,2.1229,2.1601,2.1641,2.1762,2.1977,2.2004,2.2124,2.2418,2.2432,2.2565,2.2914,2.2928,2.2928,2.2928,2.2928,2.2928,2.2928,2.2285,2.2151,2.2432,2.2499,2.3563,0.7146,0.0,0.0,0.0,0.0,0.0,0.0,0.0,0.0,0.0,0.0,0.0,0.0,0.0,0.0,0.0,0.0,0.0,0.0,0.0,0.0,0.0,0.0,0.0,0.0,0.0,0.0,0.0,0.8771,0.8689,0.8648,0.8689,0.9208,1.0315,1.0443,1.121,1.267,1.3696,1.4395,1.4824,1.6287,1.6988,1.6988,1.7424,1.7582,1.7582,1.7582,1.7582,1.7582,1.7582,1.7582,1.7609,1.7929,1.8129,1.841,1.8784,1.9065,1.9252,1.939,1.943,1.943,1.943,1.943,1.947,1.9613,1.9733,1.9893,2.0321,2.0548,2.0722,2.0935,2.1042,2.1109,2.1109,2.1109,2.1109,2.1109,2.1109,2.1109,2.1109,2.1109,2.1109,2.1109,2.1109,2.1189,2.1403,2.1243,2.1269,2.1683,2.1563,2.155,2.183,2.2058,2.2218,2.2298,2.2498,2.2659,2.2739,2.2739,2.2779,2.2928,2.2928,2.2928,2.2928,2.2928,2.2928,2.2928,2.2699,2.2659,2.2807,2.4054,2.5628,0.0,0.0,0.0,0.0,0.0,0.0,0.0,1.0314,0.0,0.0,0.0,0.0,0.0,0.0,0.0,0.0,0.0,0.0,0.0,0.0,0.0,0.0,0.0,0.0,0.0,0.0,0.0,1.0566,1.0568,1.0211,0.9565,0.9384,0.9828,1.0875,1.146,1.2583,1.418,1.4984,1.5689,1.634,1.7199,1.7582,1.7582,1.7582,1.7582,1.7582,1.7582,1.7582,1.7582,1.7582,1.7649,1.7796,1.8103,1.841,1.8704,1.8998,1.9225,1.943,1.943,1.943,1.943,1.943,1.943,1.9426,1.972,1.988,2.008,2.0548,2.0762,2.0895,2.1069,2.1109,2.1109,2.1109,2.1109,2.1109,2.1109,2.1109,2.1109,2.1109,2.1109,2.1149,2.1269,2.1296,2.139,2.1683,2.159,2.1603,2.1937,2.1844,2.1844,2.2138,2.2311,2.2472,2.2592,2.2766,2.2928,2.2928,2.2928,2.2928,2.2928,2.2928,2.2928,2.2928,2.2928,2.2928,2.2928,2.2928,2.2928,2.2928,2.4723,2.6439,0.0,0.0,0.0,0.0,0.0,0.0,1.0187,1.068,0.0,0.0,0.0,0.0,0.0,0.0,0.0,0.0,0.0,0.0,0.0,0.0,0.0,0.0,0.0,0.0,0.0,1.1319,1.1729,1.2707,1.2615,1.1992,1.0759,1.0382,1.0544,1.1309,1.2447,1.389,1.5636,1.5636,1.6274,1.7582,1.7582,1.7582,1.7582,1.7582,1.7582,1.7582,1.7582,1.7582,1.7582,1.7622,1.7782,1.805,1.837,1.8664,1.8958,1.9252,1.943,1.943,1.943,1.943,1.943,1.943,1.9444,1.9466,1.976,2.0054,2.0347,2.0641,2.0909,2.1109,2.1109,2.1109,2.1109,2.1109,2.1109,2.1109,2.1109,2.1109,2.1122,2.1149,2.1162,2.1243,2.1574,2.1641,2.1762,2.1991,2.2004,2.2004,2.2071,2.2058,2.2151,2.2432,2.2472,2.2579,2.2846,2.2928,2.2928,2.2928,2.2928,2.2928,2.2928,2.2928,2.2928,2.2928,2.3065,2.3201,2.3201,2.2996,2.2996,2.327,2.4791,2.6573,0.7098,0.7251,0.7714,0.0,0.0,0.0,0.0,1.3213,0.0,0.0,0.0,0.0,0.0,0.0,0.0,0.0,0.0,0.0,0.0,0.0,0.0,0.0,0.0,0.0,0.0,1.2886,1.2497,1.1539,1.027,0.98,1.0448,1.0406,1.1499,1.3941,1.4401,1.5427,1.7147,1.7147,1.7318,1.7582,1.7582,1.7582,1.7582,1.7582,1.7582,1.7582,1.7582,1.7582,1.7595,1.7849,1.7942,1.8009,1.837,1.8664,1.8958,1.9252,1.943,1.943,1.943,1.943,1.943,1.943,1.9533,1.9773,2.0054,2.0361,2.0655,2.0949,2.1069,2.1109,2.1109,2.1109,2.1109,2.1109,2.1109,2.1109,2.1109,2.1109,2.1176,2.1416,2.1534,2.1547,2.1601,2.175,2.2004,2.2285,2.2138,2.2151,2.2632,2.2485,2.2445,2.2739,2.2779,2.2806,2.2859,2.2928,2.2928,2.2928,2.2928,2.2928,2.2928,2.2928,2.2928,2.2928,2.4249,2.4979,2.4979,2.3597,2.3597,2.4979,2.5315,2.7222,0.7098,0.759,0.8491,0.9922,0.0,0.0,0.0,0.0,0.0,0.0,0.0,0.0,0.0,0.0,0.0,0.0,0.0,0.0,0.0,0.0,0.0,0.0,0.0,0.0,0.0,1.4341,1.4341,1.4341,1.2849,1.2207,1.2779,1.2658,1.3316,1.495,1.57,1.66,1.7582,1.7582,1.7582,1.7582,1.7582,1.7582,1.7582,1.7582,1.7582,1.7582,1.7582,1.7582,1.7609,1.7862,1.8075,1.8303,1.8584,1.8891,1.9158,1.9319,1.943,1.943,1.943,1.943,1.9399,1.9533,1.9679,1.988,2.0321,2.0655,2.0922,2.1069,2.1109,2.1109,2.1109,2.1109,2.1109,2.1109,2.1109,2.1109,2.1109,2.1109,2.1203,2.1561,2.1735,2.1817,2.1964,2.2111,2.2298,2.2592,2.2512,2.2525,2.2887,2.2726,2.2699,2.2846,2.2928,2.2928,2.2928,2.2928,2.2928,2.2928,2.2928,2.2928,2.2928,2.2928,2.3324,2.4196,2.5046,2.5905,2.6839,2.5987,2.5987,2.6839,2.7751,2.9131,0.0,0.0,0.0,0.0,0.0,1.3412,0.0,0.0,0.0,0.0,0.0,0.0,0.0,0.0,0.0,0.0,0.0,0.0,0.0,0.0,0.0,0.0,0.0,0.0,0.0,1.5583,1.5902,1.7094,1.5721,1.4949,1.5151,1.4938,1.508,1.5567,1.6626,1.734,1.7582,1.7582,1.7582,1.7582,1.7582,1.7582,1.7582,1.7582,1.7582,1.7582,1.7582,1.7622,1.7702,1.8009,1.8303,1.8597,1.8838,1.9105,1.943,1.943,1.943,1.943,1.943,1.943,1.9412,1.9706,1.988,2.0067,2.0601,2.0922,2.1109,2.1109,2.1109,2.1109,2.1109,2.1109,2.1109,2.1109,2.1109,2.1109,2.1109,2.1149,2.1283,2.1641,2.1871,2.2151,2.2378,2.2472,2.2579,2.2887,2.2928,2.2928,2.2928,2.2928,2.2928,2.2928,2.2928,2.2928,2.2928,2.2928,2.2928,2.2928,2.2928,2.2928,2.2928,2.3188,2.406,2.545,2.6172,2.7238,2.8689,2.9017,2.9017,2.8755,3.0125,3.0964,0.0,0.0,0.0,0.0,1.3602,0.0,0.0,0.0,0.0,0.0,0.0,0.0,0.0,0.0,0.0,0.0,0.0,0.0,0.0,0.0,0.0,0.0,0.0,0.0,0.0,0.0,1.5476,1.5636,1.4319,1.3944,1.4943,1.5012,1.5582,1.6935,1.709,1.734,1.7582,1.7582,1.7582,1.7582,1.7582,1.7582,1.7582,1.7582,1.7582,1.7582,1.7582,1.7742,1.7969,1.8317,1.8611,1.8878,1.8905,1.9105,1.943,1.943,1.943,1.943,1.943,1.943,1.9412,1.9706,2.0147,2.0641,2.0962,2.1082,2.1109,2.1109,2.1109,2.1109,2.1109,2.1109,2.1109,2.1109,2.1109,2.1109,2.1109,2.1309,2.159,2.1884,2.2164,2.2378,2.2405,2.2632,2.2887,2.2859,2.2928,2.2928,2.2928,2.2928,2.2928,2.2928,2.2928,2.2928,2.2928,2.2928,2.2928,2.2928,2.2928,2.2928,2.2928,2.4385,2.5315,2.5517,2.8607,3.0319,3.0513,3.2027,3.2027,3.0513,3.0707,3.1625,0.0,0.0,0.0,0.0,0.0,0.0,0.0,0.0,1.5784,0.0,0.0,0.0,0.0,0.0,0.0,0.0,0.0,0.0,0.0,0.0,0.0,0.0,0.0,0.0,0.0,0.0,0.0,0.0,0.0,1.6196,1.6506,1.6493,1.6807,1.7395,1.7447,1.7514,1.7582,1.7582,1.7582,1.7582,1.7582,1.7582,1.7582,1.7582,1.7582,1.7582,1.7582,1.7756,1.8009,1.837,1.8664,1.8945,1.9118,1.9252,1.943,1.943,1.943,1.943,1.943,1.9479,1.9693,2.016,2.0588,2.0949,2.1069,2.1109,2.1109,2.1109,2.1109,2.1109,2.1109,2.1109,2.1109,2.1109,2.1243,2.1363,2.1363,2.1603,2.1884,2.2178,2.2338,2.2472,2.2645,2.2779,2.2928,2.2928,2.2928,2.2928,2.2928,2.2928,2.2928,2.2928,2.2928,2.2928,2.2928,2.2928,2.2928,2.2928,2.2928,2.3324,2.4385,2.5113,2.6506,2.8541,3.0042,3.1304,3.2301,3.3019,3.3019,3.2301,3.2301,3.2683,0.9806,0.0,0.0,0.0,0.0,0.0,0.0,0.0,0.0,0.0,0.0,0.0,0.0,0.0,0.0,0.0,0.0,0.0,0.0,0.0,0.0,0.0,0.0,0.0,0.0,0.0,0.0,0.0,0.0,0.0,1.7595,1.7582,1.7582,1.7582,1.7582,1.7582,1.7582,1.7582,1.7582,1.7582,1.7582,1.7582,1.7582,1.7582,1.7582,1.7582,1.7675,1.7889,1.8142,1.849,1.8784,1.9065,1.9279,1.943,1.943,1.943,1.943,1.943,1.9452,1.9733,2.0107,2.0535,2.0869,2.1109,2.1109,2.1109,2.1109,2.1109,2.1109,2.1109,2.1109,2.1162,2.1229,2.1229,2.1456,2.1735,2.1735,2.1897,2.2164,2.2378,2.2485,2.2605,2.2887,2.2928,2.2928,2.2928,2.2928,2.2928,2.2928,2.2928,2.2928,2.2928,2.2928,2.2928,2.2928,2.2928,2.3133,2.3597,2.3597,2.4385,2.6172,2.6706,2.8147,3.0771,3.1304,3.2155,3.3418,3.3418,3.3418,3.3418,3.3418,3.3418,0.0,0.0,0.0,1.5425,0.0,0.0,0.0,0.0,1.5784,0.0,0.0,0.0,0.0,0.0,0.0,0.0,0.0,0.0,0.0,0.0,0.0,0.0,0.0,0.0,0.0,0.0,0.0,0.0,0.0,0.0,1.7582,1.7582,1.7582,1.7582,1.7582,1.7582,1.7582,1.7582,1.7582,1.7582,1.7582,1.7582,1.7582,1.7582,1.7582,1.7595,1.7849,1.8196,1.8504,1.8784,1.9092,1.9417,1.9417,1.943,1.943,1.943,1.943,1.947,1.9693,2.016,2.0655,2.0668,2.0869,2.1109,2.1109,2.1109,2.1109,2.1109,2.1109,2.1109,2.1109,2.1323,2.1601,2.1601,2.1764,2.1977,2.1977,2.2205,2.2405,2.2418,2.2645,2.2914,2.2928,2.2928,2.2928,2.2928,2.2928,2.2928,2.2928,2.2928,2.2928,2.2928,2.2928,2.2928,2.2928,2.2928,2.3597,2.5315,2.545,2.6239,2.8032,2.9735,3.0707,3.0771,3.2428,3.3355,3.3418,3.3418,3.3418,3.3418,3.3418,3.3418,0.0,0.0,1.422,1.5486,0.0,0.0,0.0,0.0,0.0,0.0,0.0,0.0,0.0,0.0,0.0,0.0,0.0,0.0,0.0,0.0,0.0,0.0,0.0,0.0,0.0,0.0,0.0,0.0,0.0,0.0,0.0,1.7582,1.7582,1.7582,1.7582,1.7582,1.7582,1.7582,1.7582,1.7582,1.7582,1.7582,1.7582,1.7582,1.7689,1.7903,1.7942,1.8275,1.8784,1.8878,1.9092,1.943,1.943,1.943,1.943,1.943,1.9492,1.972,2.0214,2.0508,2.0708,2.0895,2.1029,2.1109,2.1109,2.1109,2.1109,2.1109,2.1109,2.1149,2.1349,2.1547,2.1668,2.179,2.2058,2.2271,2.2271,2.2498,2.2712,2.2712,2.2792,2.2928,2.2928,2.2928,2.2928,2.2928,2.2928,2.2928,2.2928,2.2928,2.2928,2.2928,2.2928,2.2928,2.2928,2.3992,2.5383,2.7172,2.7304,2.8098,2.9865,3.0513,3.1368,3.2492,3.3082,3.3418,3.3418,3.3418,3.3418,3.3418,3.3418,3.3418,1.1521,1.2861,0.0,1.5486,1.5685,0.0,1.5925,0.0,0.0,0.0,0.0,0.0,0.0,0.0,0.0,0.0,0.0,0.0,0.0,0.0,0.0,0.0,0.0,0.0,0.0,0.0,1.7488,1.7367,1.7569,0.0,0.0,0.0,1.7582,1.7582,1.7582,1.7582,1.7582,1.7582,1.7582,1.7582,1.7582,1.7582,1.7582,1.7689,1.7849,1.8009,1.8209,1.8515,1.8931,1.9038,1.9199,1.943,1.943,1.943,1.943,1.9479,1.9773,2.016,2.0548,2.0748,2.0855,2.1042,2.1109,2.1109,2.1109,2.1109,2.1109,2.1109,2.1189,2.1309,2.1574,2.1775,2.1911,2.2098,2.2365,2.2579,2.2579,2.2726,2.2928,2.2928,2.2928,2.2928,2.2928,2.2928,2.2928,2.2928,2.2928,2.2928,2.2928,2.2928,2.2928,2.2928,2.3461,2.406,2.4723,2.5786,2.7238,2.9017,2.9148,2.993,3.1625,3.1689,3.2237,3.3355,3.3418,3.3418,3.3418,3.3418,3.3418,3.3418,3.3418,3.3418]},{"header":{"parameterUnit":"m.s-1","parameterCategory":1,"la1":30.6,"la2":29.2853,"lo1":-89.7004,"lo2":-87.6739,"dy":0.0162,"dx":0.0183,"nx":112,"ny":82,"refTime":"2026-03-15T12:00:00:Z","depth":0,"parameterNumber":3,"parameterNumberName":"V-component_of_WINDS"},"data":[0.0,0.0,0.0,0.0,0.0,0.0,0.0,0.0,0.0,0.0,0.0,0.0,0.0,0.0,0.0,0.0,0.0,0.0,0.0,0.0,0.0,0.0,0.0,0.0,0.0,0.0,0.0,0.0,0.0,0.0,0.0,0.0,0.0,0.0,0.0,0.0,0.0,0.0,0.0,0.0,0.0,0.0,0.0,0.0,0.0,0.0,0.0,0.0,0.0,0.0,0.0,0.0,0.0,0.0,0.0,0.0,0.0,0.0,0.0,0.0,0.0,0.0,0.0,0.0,0.0,0.0,0.0,0.0,0.0,0.0,0.0,0.0,0.0,0.0,0.0,0.0,0.0,0.0,0.0,0.0,0.0,0.0,0.0,0.0,0.0,0.0,0.0,0.0,0.0,0.0,0.0,2.0448,1.9703,1.9288,1.9405,1.9335,1.9687,2.0547,0.0,0.0,0.0,0.0,0.0,0.0,0.0,0.0,0.0,0.0,0.0,0.0,0.0,0.0,0.0,0.0,0.0,0.0,0.0,0.0,0.0,0.0,0.0,0.0,0.0,0.0,0.0,0.0,0.0,0.0,0.0,0.0,0.0,0.0,0.0,0.0,0.0,0.0,0.0,0.0,0.0,0.0,0.0,0.0,0.0,0.0,0.0,0.0,0.0,0.0,0.0,0.0,0.0,0.0,0.0,0.0,0.0,0.0,0.0,0.0,0.0,0.0,0.0,0.0,0.0,0.0,0.0,0.0,0.0,0.0,0.0,0.0,0.0,0.0,0.0,0.0,0.0,0.0,0.0,0.0,0.0,0.0,0.0,0.0,0.0,0.0,0.0,0.0,0.0,0.0,0.0,0.0,0.0,0.0,0.0,0.0,0.0,0.0,0.0,0.0,0.0,0.0,0.0,0.0,2.0458,2.0543,1.9804,1.957,2.0312,1.9726,1.9687,2.0547,0.0,0.0,0.0,0.0,0.0,0.0,0.0,0.0,0.0,0.0,0.0,0.0,0.0,0.0,0.0,0.0,0.0,0.0,0.0,0.0,0.0,0.0,0.0,0.0,0.0,0.0,0.0,0.0,0.0,0.0,0.0,0.0,0.0,0.0,0.0,0.0,0.0,0.0,0.0,0.0,0.0,0.0,0.0,0.0,0.0,0.0,0.0,0.0,0.0,0.0,0.0,0.0,0.0,0.0,0.0,0.0,0.0,0.0,0.0,0.0,0.0,0.0,0.0,0.0,0.0,0.0,0.0,0.0,0.0,0.0,0.0,0.0,0.0,0.0,0.0,0.0,0.0,0.0,0.0,0.0,0.0,0.0,0.0,0.0,0.0,0.0,0.0,0.0,0.0,0.0,0.0,0.0,0.0,0.0,0.0,0.0,0.0,0.0,0.0,0.0,0.0,0.0,0.0,2.0567,2.0833,2.0,1.9961,2.0156,2.0586,1.9805,1.9687,2.0547,2.0156,0.0,0.0,0.0,0.0,0.0,0.0,0.0,0.0,0.0,0.0,0.0,0.0,0.0,0.0,0.0,0.0,0.0,0.0,0.0,0.0,0.0,0.0,0.0,0.0,0.0,0.0,0.0,0.0,0.0,0.0,0.0,0.0,0.0,0.0,0.0,0.0,0.0,0.0,0.0,0.0,0.0,0.0,0.0,0.0,0.0,0.0,0.0,0.0,0.0,0.0,0.0,0.0,0.0,0.0,0.0,0.0,0.0,0.0,0.0,0.0,0.0,0.0,0.0,0.0,0.0,0.0,0.0,0.0,0.0,0.0,0.0,0.0,0.0,0.0,0.0,0.0,0.0,0.0,0.0,0.0,0.0,0.0,0.0,0.0,0.0,0.0,0.0,0.0,0.0,0.0,0.0,0.0,0.0,0.0,0.0,0.0,0.0,0.0,0.0,0.0,0.0,0.0,2.0802,2.1046,1.9726,2.0195,2.0586,2.0586,2.0,1.9883,2.0547,2.0156,0.0,0.0,0.0,0.0,0.0,0.0,0.0,0.0,0.0,0.0,0.0,0.0,0.0,0.0,0.0,0.0,0.0,0.0,0.0,0.0,0.0,0.0,0.0,0.0,0.0,0.0,0.0,0.0,0.0,0.0,0.0,0.0,0.0,0.0,0.0,0.0,0.0,0.0,0.0,0.0,0.0,0.0,0.0,0.0,0.0,0.0,0.0,0.0,0.0,0.0,0.0,0.0,0.0,0.0,0.0,0.0,0.0,0.0,0.0,0.0,0.0,0.0,0.0,0.0,0.0,0.0,0.0,0.0,0.0,0.0,0.0,0.0,0.0,0.0,0.0,0.0,0.0,0.0,0.0,0.0,0.0,0.0,0.0,0.0,0.0,0.0,0.0,0.0,0.0,0.0,0.0,0.0,0.0,0.0,0.0,0.0,0.0,0.0,0.0,0.0,0.0,0.0,2.1051,2.0625,2.0508,2.0547,2.0586,2.0586,2.0547,2.0547,2.0586,2.1289,0.0,0.0,0.0,0.0,0.0,0.0,0.0,0.0,0.0,0.0,0.0,0.0,0.0,0.0,0.0,0.0,0.0,0.0,0.0,0.0,0.0,0.0,0.0,0.0,0.0,0.0,0.0,0.0,0.0,0.0,0.0,0.0,0.0,0.0,0.0,0.0,0.0,0.0,0.0,0.0,0.0,0.0,0.0,0.0,0.0,0.0,0.0,0.0,0.0,0.0,0.0,0.0,0.0,0.0,0.0,0.0,0.0,0.0,0.0,0.0,0.0,0.0,0.0,0.0,0.0,0.0,0.0,0.0,0.0,0.0,0.0,0.0,0.0,0.0,0.0,0.0,0.0,0.0,0.0,0.0,0.0,0.0,0.0,0.0,0.0,0.0,0.0,0.0,0.0,0.0,0.0,0.0,0.0,0.0,0.0,0.0,0.0,0.0,0.0,0.0,0.0,0.0,2.1497,2.1166,0.0,2.0586,2.0586,2.0586,2.0586,2.0586,2.0586,0.0,0.0,0.0,0.0,0.0,0.0,0.0,0.0,0.0,0.0,0.0,0.0,0.0,0.0,0.0,0.0,0.0,0.0,0.0,0.0,0.0,0.0,0.0,0.0,0.0,0.0,0.0,0.0,0.0,0.0,0.0,0.0,0.0,0.0,0.0,0.0,0.0,0.0,0.0,0.0,0.0,0.0,0.0,0.0,0.0,0.0,0.0,0.0,0.0,0.0,0.0,0.0,0.0,0.0,0.0,0.0,0.0,0.0,0.0,0.0,0.0,0.0,0.0,0.0,0.0,0.0,0.0,0.0,0.0,0.0,0.0,0.0,0.0,0.0,0.0,0.0,0.0,0.0,0.0,0.0,0.0,0.0,0.0,0.0,0.0,0.0,0.0,0.0,0.0,0.0,0.0,0.0,0.0,0.0,0.0,0.0,0.0,0.0,0.0,0.0,0.0,0.0,2.2257,2.1969,2.1399,0.0,2.0195,2.0078,1.9805,1.9766,1.9883,2.0156,0.0,0.0,0.0,0.0,0.0,0.0,0.0,0.0,0.0,0.0,0.0,0.0,0.0,0.0,0.0,0.0,0.0,0.0,0.0,0.0,0.0,0.0,0.0,0.0,0.0,0.0,0.0,0.0,0.0,0.0,0.0,0.0,0.0,0.0,0.0,0.0,0.0,0.0,0.0,0.0,0.0,0.0,0.0,0.0,0.0,0.0,0.0,0.0,0.0,0.0,0.0,0.0,0.0,0.0,0.0,0.0,0.0,0.0,0.0,0.0,0.0,0.0,0.0,0.0,0.0,0.0,0.0,0.0,0.0,0.0,0.0,0.0,0.0,0.0,0.0,0.0,0.0,0.0,0.0,0.0,0.0,0.0,0.0,0.0,0.0,0.0,0.0,0.0,0.0,0.0,0.0,0.0,0.0,0.0,0.0,0.0,0.0,0.0,0.0,0.0,0.0,0.0,2.3164,2.2422,2.1211,1.9453,1.9297,1.8945,1.8086,1.8008,1.8359,0.0,0.0,0.0,0.0,0.0,0.0,0.0,0.0,0.0,0.0,0.0,0.0,0.0,0.0,0.0,0.0,0.0,0.0,0.0,0.0,0.0,0.0,0.0,0.0,0.0,0.0,0.0,0.0,0.0,0.0,0.0,0.0,0.0,0.0,0.0,0.0,0.0,0.0,0.0,0.0,0.0,0.0,0.0,0.0,0.0,0.0,0.0,0.0,0.0,0.0,0.0,0.0,0.0,0.0,0.0,0.0,0.0,0.0,0.0,0.0,0.0,0.0,0.0,0.0,0.0,0.0,0.0,0.0,0.0,0.0,0.0,0.0,0.0,0.0,0.0,0.0,0.0,0.0,0.0,0.0,0.0,0.0,0.0,0.0,0.0,0.0,0.0,0.0,0.0,0.0,0.0,0.0,0.0,0.0,0.0,0.0,0.0,0.0,0.0,0.0,0.0,0.0,0.0,2.229,2.0974,1.9648,1.8516,1.8398,1.8281,1.8008,1.8008,1.8359,1.9258,0.0,0.0,0.0,0.0,0.0,0.0,0.0,0.0,0.0,0.0,0.0,0.0,0.0,0.0,0.0,0.0,0.0,0.0,0.0,0.0,0.0,0.0,0.0,0.0,0.0,0.0,0.0,0.0,0.0,0.0,0.0,0.0,0.0,0.0,0.0,0.0,0.0,0.0,0.0,0.0,0.0,0.0,0.0,0.0,0.0,0.0,0.0,0.0,0.0,0.0,0.0,0.0,0.0,0.0,0.0,0.0,0.0,0.0,0.0,0.0,0.0,0.0,0.0,0.0,0.0,0.0,0.0,0.0,0.0,0.0,0.0,0.0,0.0,0.0,0.0,0.0,0.0,0.0,0.0,0.0,0.0,0.0,0.0,0.0,0.0,0.0,0.0,0.0,0.0,0.0,0.0,0.0,0.0,0.0,0.0,0.0,0.0,0.0,0.0,0.0,0.0,0.0,2.2451,2.0858,1.9336,1.8125,1.7695,1.7344,1.6992,1.6953,1.7461,1.8711,0.0,0.0,0.0,0.0,0.0,0.0,0.0,0.0,0.0,0.0,0.0,0.0,0.0,0.0,0.0,0.0,0.0,0.0,0.0,0.0,0.0,0.0,0.0,0.0,0.0,0.0,0.0,0.0,0.0,0.0,0.0,0.0,0.0,0.0,0.0,0.0,0.0,0.0,0.0,0.0,0.0,0.0,0.0,0.0,0.0,0.0,0.0,0.0,0.0,0.0,0.0,0.0,0.0,0.0,0.0,0.0,0.0,0.0,0.0,0.0,0.0,0.0,0.0,0.0,0.0,0.0,0.0,0.0,0.0,0.0,0.0,0.0,0.0,0.0,0.0,0.0,0.0,0.0,0.0,0.0,0.0,0.0,0.0,0.0,0.0,0.0,0.0,0.0,0.0,0.0,0.0,0.0,0.0,0.0,0.0,0.0,0.0,0.0,0.0,0.0,0.0,0.0,2.3164,2.1562,1.9805,1.8086,1.7227,1.6484,1.5586,1.5586,1.6328,1.7891,0.0,0.0,0.0,0.0,0.0,0.0,0.0,0.0,0.0,0.0,0.0,0.0,0.0,0.0,0.0,0.0,0.0,0.0,0.0,0.0,0.0,0.0,0.0,0.0,0.0,0.0,0.0,0.0,0.0,0.0,0.0,0.0,0.0,0.0,0.0,0.0,0.0,0.0,0.0,0.0,0.0,0.0,0.0,0.0,0.0,0.0,0.0,0.0,0.0,0.0,0.0,0.0,0.0,0.0,0.0,0.0,0.0,0.0,0.0,0.0,2.3857,0.0,0.0,0.0,0.0,0.0,0.0,0.0,0.0,0.0,0.0,0.0,0.0,0.0,0.0,0.0,0.0,0.0,0.0,0.0,0.0,0.0,0.0,0.0,0.0,0.0,0.0,0.0,0.0,0.0,0.0,0.0,0.0,0.0,0.0,0.0,0.0,0.0,0.0,0.0,0.0,0.0,2.2266,2.0664,1.8906,1.7148,1.7422,1.7383,1.6484,1.7031,1.7617,1.7969,0.0,0.0,0.0,0.0,0.0,0.0,0.0,0.0,0.0,0.0,0.0,0.0,0.0,0.0,0.0,0.0,0.0,0.0,0.0,0.0,0.0,0.0,0.0,0.0,0.0,0.0,0.0,0.0,0.0,0.0,0.0,0.0,0.0,0.0,0.0,0.0,0.0,0.0,0.0,0.0,0.0,0.0,0.0,0.0,0.0,0.0,0.0,0.0,0.0,0.0,0.0,0.0,0.0,0.0,0.0,0.0,0.0,0.0,0.0,0.0,0.0,2.4287,0.0,0.0,0.0,0.0,0.0,0.0,0.0,0.0,0.0,0.0,0.0,0.0,0.0,0.0,0.0,0.0,0.0,0.0,0.0,0.0,0.0,0.0,0.0,0.0,0.0,0.0,0.0,0.0,0.0,0.0,0.0,0.0,0.0,0.0,0.0,0.0,0.0,0.0,0.0,0.0,2.2578,2.0625,1.8945,1.8047,1.7969,1.7812,1.7344,1.7734,1.8164,1.8594,1.9453,0.0,0.0,0.0,0.0,0.0,0.0,0.0,0.0,0.0,0.0,0.0,0.0,0.0,0.0,0.0,0.0,0.0,0.0,0.0,0.0,0.0,0.0,0.0,0.0,0.0,0.0,0.0,0.0,0.0,0.0,0.0,0.0,0.0,0.0,0.0,0.0,0.0,0.0,0.0,0.0,0.0,0.0,0.0,0.0,0.0,0.0,0.0,0.0,0.0,0.0,0.0,0.0,0.0,2.5987,2.6342,2.6349,2.6391,2.6853,2.7555,2.6001,2.5386,2.5437,0.0,0.0,0.0,0.0,0.0,0.0,0.0,0.0,0.0,0.0,0.0,0.0,0.0,0.0,0.0,0.0,0.0,0.0,0.0,0.0,0.0,0.0,0.0,0.0,0.0,2.469,2.3928,0.0,0.0,0.0,0.0,0.0,0.0,0.0,0.0,0.0,0.0,0.0,0.0,2.3203,2.1172,1.9648,1.9336,1.8789,1.8398,1.8242,1.8359,1.8711,1.9258,1.9453,1.9844,0.0,0.0,0.0,0.0,0.0,0.0,0.0,0.0,0.0,0.0,0.0,0.0,0.0,0.0,0.0,0.0,0.0,0.0,0.0,0.0,0.0,0.0,0.0,0.0,0.0,0.0,0.0,0.0,0.0,0.0,0.0,0.0,2.4347,2.4347,0.0,0.0,0.0,0.0,0.0,0.0,0.0,0.0,0.0,0.0,0.0,0.0,0.0,2.6186,2.6949,2.7148,2.7223,2.7223,2.7514,2.7648,2.7648,2.7654,2.7736,2.7868,2.7616,0.0,2.7249,2.7229,0.0,0.0,0.0,0.0,0.0,0.0,0.0,0.0,0.0,0.0,0.0,0.0,0.0,0.0,0.0,0.0,0.0,0.0,0.0,0.0,0.0,0.0,2.4413,2.453,2.3944,2.3281,0.0,2.4328,2.5453,2.5507,0.0,0.0,0.0,0.0,0.0,0.0,0.0,0.0,2.3281,2.2227,2.0977,1.9453,1.9883,1.9961,1.918,1.9805,1.9961,1.9336,2.0,2.0469,2.0586,2.0703,0.0,0.0,0.0,0.0,0.0,0.0,0.0,0.0,0.0,0.0,0.0,0.0,0.0,0.0,0.0,0.0,0.0,0.0,0.0,0.0,0.0,0.0,0.0,0.0,0.0,0.0,0.0,0.0,0.0,2.4663,2.4981,2.4413,2.4834,2.4952,0.0,0.0,0.0,0.0,0.0,0.0,0.0,0.0,0.0,2.6861,2.6906,2.7144,2.7625,2.7732,2.7767,2.7767,2.833,2.8588,2.8588,2.9083,2.9313,2.9313,2.9813,2.9702,2.9104,2.8145,2.7532,2.7186,0.0,0.0,0.0,0.0,2.6774,2.6774,2.6774,2.6774,0.0,0.0,0.0,0.0,0.0,0.0,0.0,0.0,0.0,0.0,0.0,0.0,0.0,2.5117,2.4844,2.4609,2.457,2.5155,2.5505,0.0,2.5352,2.5703,2.5703,0.0,0.0,0.0,0.0,0.0,2.3281,2.2852,2.1953,2.0234,2.1211,2.168,2.082,2.1523,2.1836,2.1445,2.1797,2.1797,2.1367,2.1797,2.2344,0.0,0.0,0.0,0.0,0.0,0.0,0.0,0.0,0.0,0.0,0.0,0.0,0.0,0.0,0.0,0.0,0.0,0.0,0.0,0.0,0.0,0.0,0.0,0.0,0.0,0.0,0.0,0.0,2.5193,2.5456,2.4491,2.5444,2.5826,0.0,0.0,0.0,0.0,0.0,0.0,2.7365,2.7365,2.7566,2.7963,2.8192,2.8516,2.8852,2.9083,2.9159,2.9198,2.9781,3.0088,3.0088,3.0737,3.1038,3.1077,3.1737,3.1646,3.0992,2.949,2.8621,2.8203,2.8245,2.8101,2.7913,2.7952,2.7966,2.7966,2.7966,2.7966,2.7868,2.7271,0.0,2.708,2.7143,0.0,0.0,0.0,0.0,2.6237,2.6003,2.6012,2.5977,2.5742,2.5703,2.5703,2.5703,2.5703,2.5508,0.0,2.5273,2.5703,2.5703,0.0,0.0,0.0,0.0,2.4453,2.3594,2.3516,2.293,2.1445,2.2383,2.2852,2.2266,2.2773,2.3125,2.3125,2.3125,2.2812,2.2227,2.2812,2.2969,2.2539,0.0,0.0,0.0,0.0,0.0,0.0,0.0,0.0,0.0,0.0,0.0,0.0,0.0,0.0,0.0,0.0,0.0,0.0,0.0,0.0,0.0,0.0,0.0,0.0,0.0,0.0,0.0,0.0,0.0,2.5044,2.6454,0.0,0.0,0.0,0.0,2.7214,2.7297,2.7373,2.7579,2.7586,2.8045,2.8994,2.984,3.0648,3.1506,3.2275,3.266,3.266,3.2699,3.2699,3.2699,3.2737,3.2776,3.2776,3.2814,3.2871,3.288,3.1923,3.0544,2.9066,2.9114,2.8659,2.8016,2.8076,2.8106,2.8106,2.8106,2.8106,2.8077,2.8125,2.8137,2.8137,2.814,2.814,0.0,0.0,2.8157,2.7969,2.7148,2.6914,2.6719,2.5898,2.5703,2.5703,2.5703,2.5703,2.5703,0.0,2.5664,2.5703,2.5703,0.0,2.5703,2.5703,2.5664,2.5312,2.4453,2.4336,2.4023,2.3164,2.3086,2.3125,2.3125,2.3125,2.3125,2.3203,2.3125,2.3086,2.3047,2.3086,2.3477,2.4258,2.4336,0.0,0.0,0.0,0.0,0.0,0.0,0.0,0.0,0.0,0.0,0.0,0.0,0.0,0.0,0.0,0.0,0.0,0.0,0.0,0.0,0.0,0.0,0.0,0.0,0.0,0.0,0.0,0.0,2.6591,2.7615,0.0,2.7124,2.7778,2.8329,2.8466,2.9513,3.0145,3.0235,3.074,3.1188,3.1545,3.1852,3.216,3.2468,3.2776,3.2891,3.2891,3.2891,3.2952,3.3019,3.3019,3.3064,3.3102,3.368,3.3627,3.3199,3.339,3.2481,3.0894,3.0927,3.0432,2.9694,2.9688,2.9697,2.9697,2.9697,2.9697,2.9632,2.918,2.9089,2.9099,2.9099,2.9099,2.9099,2.9099,2.871,2.8242,2.793,2.7851,2.7773,2.7461,2.7383,2.7226,2.6641,2.6523,2.6367,2.582,2.5703,2.5703,2.5703,2.5703,2.5703,2.5703,2.5703,2.5351,2.4445,2.4834,2.4638,2.327,2.4091,2.4526,2.4023,2.4453,2.5039,2.5625,2.5625,2.5625,2.5625,2.5625,2.5234,2.4414,2.4414,2.4414,0.0,0.0,0.0,0.0,0.0,0.0,0.0,0.0,0.0,0.0,0.0,0.0,0.0,0.0,0.0,0.0,0.0,0.0,0.0,0.0,0.0,0.0,0.0,0.0,0.0,0.0,2.8464,2.7601,2.8574,2.9021,2.8179,2.9136,2.9832,2.9962,3.1314,3.2083,3.2083,3.2622,3.2891,3.2891,3.3199,3.3346,3.3361,3.367,3.3815,3.3826,3.3826,3.3882,3.3964,3.3964,3.4004,3.4062,3.4643,3.4619,3.4177,3.472,3.4148,3.2801,3.2508,3.2031,3.1525,3.1545,3.1551,3.1551,3.1551,3.1551,3.1439,3.0645,3.0426,3.043,3.0117,3.0039,3.0039,3.0039,2.9609,2.9101,2.8828,2.875,2.8672,2.8359,2.8281,2.8125,2.7578,2.7422,2.7266,2.668,2.6094,2.5703,2.5703,2.5937,2.6133,2.6133,2.6406,2.6367,2.5733,2.6161,2.6083,2.4989,2.5849,2.6283,2.5742,2.625,2.6836,2.7383,2.7422,2.7422,2.7422,2.7148,2.6445,2.5312,2.4959,2.5074,2.5699,0.0,0.0,0.0,0.0,0.0,0.0,0.0,0.0,0.0,0.0,0.0,0.0,0.0,0.0,0.0,0.0,0.0,0.0,0.0,0.0,0.0,0.0,0.0,2.7784,2.8338,2.8626,2.8033,2.9429,3.0115,2.928,3.0737,3.1737,3.1737,3.2474,3.2936,3.2936,3.2981,3.2987,3.2987,3.3795,3.4299,3.44,3.5209,3.5697,3.5765,3.5765,3.5765,3.5768,3.573,3.573,3.5772,3.5772,3.5814,3.5942,3.5942,3.5457,3.4648,3.3698,3.3335,3.33,3.3397,3.3398,3.3398,3.3398,3.3398,3.3281,3.25,3.2226,3.207,3.1211,3.0976,3.0976,3.0976,3.0976,3.0742,2.9883,2.9648,2.9414,2.8594,2.8398,2.8359,2.8359,2.8359,2.832,2.8281,2.6914,2.5781,2.5781,2.6484,2.7031,2.7031,2.7734,0.0,2.8281,2.8281,2.8281,2.8281,2.8281,2.8281,2.8281,2.8281,2.832,2.832,2.832,2.8359,2.8359,2.7578,2.7109,2.707,2.6156,2.6529,2.8171,0.0,0.0,0.0,0.0,0.0,0.0,0.0,0.0,0.0,0.0,0.0,0.0,0.0,0.0,0.0,0.0,0.0,0.0,0.0,0.0,0.0,0.0,2.9725,2.8806,2.9409,2.9882,2.9731,3.0692,3.1237,3.1006,3.1968,3.2583,3.2583,3.3429,3.3914,3.3914,3.455,3.4947,3.4947,3.5176,3.5581,3.6239,3.6511,3.6954,3.7569,3.694,3.701,3.7602,3.6389,3.6567,3.7763,3.7139,3.6869,3.6911,3.6911,3.6405,3.5547,3.4647,3.3943,3.3358,3.3398,3.3398,3.3398,3.3398,3.3398,3.3359,3.3125,3.3086,3.3047,3.2773,3.2695,3.2695,3.2695,3.2305,3.1797,3.1562,3.1016,3.0469,3.0234,3.0195,3.0,2.9375,2.9214,2.8969,2.8344,2.7812,2.7457,2.7577,2.773,2.7875,2.7875,2.8044,0.0,2.8076,2.8067,2.809,2.8141,2.8145,2.8159,2.8225,2.8226,2.8449,0.0,2.9035,2.931,2.9936,2.9741,2.931,2.8684,2.7844,2.7637,0.0,0.0,0.0,0.0,0.0,0.0,0.0,0.0,0.0,0.0,0.0,0.0,0.0,0.0,0.0,0.0,0.0,0.0,0.0,0.0,0.0,0.0,3.0722,3.1344,3.0848,3.1168,3.1462,3.1462,3.1956,3.2309,3.2309,3.3058,3.3558,3.3558,3.4395,3.49,3.49,3.5383,3.5882,3.6236,3.6236,3.6683,3.7576,3.7576,3.7864,3.8434,3.7925,3.7978,3.8465,3.7488,3.7613,0.0,3.8047,3.7851,3.7812,3.7461,3.6992,0.0,0.0,0.0,0.0,0.0,3.4492,3.4492,3.4492,3.4492,3.4414,3.4062,3.3945,3.3867,3.3516,3.3398,3.3398,3.3398,3.3047,3.2695,3.2695,3.2303,3.1907,3.1907,3.1898,3.173,3.1223,3.0776,3.0367,2.9858,0.0,0.0,2.9268,2.8943,2.8649,2.8649,2.8929,2.9117,0.0,2.9105,2.9087,2.9138,2.9144,2.916,2.9195,2.9197,0.0,0.0,0.0,2.9916,3.0036,3.0075,0.0,0.0,0.0,0.0,0.0,0.0,0.0,0.0,2.7203,2.7137,0.0,0.0,0.0,0.0,0.0,0.0,0.0,0.0,0.0,0.0,0.0,0.0,0.0,0.0,0.0,0.0,3.2145,3.327,3.327,3.3318,3.3261,3.2991,3.3117,3.327,3.327,3.4093,3.4643,3.4643,3.5386,3.5856,3.5856,0.0,0.0,0.0,0.0,3.7625,3.8567,3.8567,3.87,3.8906,3.8789,3.8789,3.8906,3.8672,3.8711,3.8906,3.8789,3.875,3.8672,3.7891,3.7539,3.7344,3.6484,3.6133,3.6172,3.625,3.6289,3.6289,3.6289,0.0,0.0,3.5273,3.5,3.4844,3.3945,3.3672,3.3672,3.3671,3.3593,3.3515,3.3514,3.3421,3.3273,3.3273,3.3231,3.3216,3.3216,3.2587,3.2,3.2,3.1375,3.0866,3.0866,3.0053,2.9434,2.9434,3.0092,3.0594,3.0594,3.0594,3.0636,3.0724,0.0,0.0,3.084,3.0688,3.0646,3.0711,3.0633,3.0241,2.9457,2.9418,2.9418,2.9418,2.9368,2.9751,3.0616,2.9803,2.9434,2.9517,2.8632,2.824,0.0,0.0,0.0,0.0,0.0,0.0,0.0,0.0,0.0,0.0,0.0,0.0,0.0,0.0,0.0,3.2524,3.352,3.4231,3.4231,3.5383,3.545,3.3389,3.3792,3.4231,3.4231,3.498,3.5454,3.5454,3.637,3.6904,3.6904,3.7641,0.0,3.8277,3.8277,3.8708,3.9608,3.9608,3.9999,4.0703,0.0,0.0,4.0664,3.9258,3.9375,4.0664,3.9961,3.9648,3.9648,3.9453,3.8984,3.8242,3.7383,3.7031,3.7148,3.7851,3.8086,3.8086,3.8086,3.8086,3.7969,3.707,3.6797,3.6641,3.5742,3.5508,0.0,3.5414,3.4898,3.4344,3.4299,3.3763,3.3203,3.3203,3.3229,3.3216,3.3216,3.2998,3.2778,3.2778,3.2627,3.2474,3.2474,3.1255,3.0276,3.0276,3.0385,3.043,3.043,3.043,3.0747,3.1508,3.0939,3.109,3.2434,3.128,3.078,3.1444,3.0816,3.0353,3.0193,3.0193,3.0193,3.0193,3.0166,3.0617,3.1471,3.1287,3.1545,3.2122,2.9902,2.9296,0.0,0.0,0.0,0.0,0.0,0.0,0.0,0.0,0.0,0.0,0.0,3.0797,3.1661,0.0,3.3432,3.4335,3.5263,3.5985,3.6414,3.7221,3.7139,3.532,3.5889,3.6455,3.6455,3.687,3.7155,3.7155,3.7602,3.7882,3.7882,3.8358,3.8789,3.9258,3.9258,3.9687,4.0547,4.0547,4.0781,4.1172,4.0742,4.0781,4.1172,4.0312,4.0391,4.1172,4.0742,4.0547,4.0508,4.0078,3.9375,3.8594,3.8594,3.832,3.8008,3.8437,3.8594,3.8594,3.8594,3.8594,3.8516,3.8086,3.7927,3.7762,3.7333,3.7163,3.7139,3.7108,3.6782,3.6345,3.5882,3.5403,3.493,3.4503,3.4381,3.4365,3.4365,3.397,3.3616,3.3616,3.321,3.2891,3.2891,3.2226,3.1692,3.1692,3.1669,3.1654,3.1654,3.1654,3.1844,3.2304,3.1962,3.2039,3.2883,3.2193,3.1857,3.2282,3.1891,3.1654,3.1654,3.1654,3.1654,3.1654,3.1654,3.1891,3.2314,3.2314,3.2506,3.2891,3.2051,3.166,0.0,0.0,0.0,0.0,0.0,0.0,0.0,0.0,3.0234,3.089,3.1767,3.2636,3.3348,3.4319,3.5257,3.5977,3.6873,3.7713,3.8337,3.8668,3.851,3.7664,3.8083,3.8454,3.8454,3.8551,3.8594,3.8594,3.875,3.8867,3.8867,3.9023,3.9414,4.0117,4.0156,4.0508,4.1172,4.1211,4.1211,4.1211,4.1211,4.1211,4.1211,4.1211,4.1211,4.1211,4.1211,4.1211,4.1133,4.043,3.9726,3.918,3.9883,3.9726,3.9101,3.9101,3.9101,3.9101,3.9101,3.9101,3.9022,3.8866,3.8732,3.8612,3.8417,3.8332,3.8303,3.8283,3.8279,3.808,3.7372,3.7138,3.6936,3.624,3.6029,3.6,3.6,3.5315,3.4706,3.4706,3.4007,3.343,3.343,3.343,3.3276,3.2968,3.2891,3.2891,3.2891,3.2891,3.2968,3.3122,3.3006,3.2891,3.2891,3.3045,3.3083,3.2891,3.2891,3.2891,3.2891,3.2891,3.2891,3.2891,3.2891,3.2968,3.316,3.3314,3.3506,3.366,3.4545,3.4391,2.8088,2.7895,0.0,2.9731,3.0153,3.06,0.0,0.0,3.2772,3.2888,3.3592,3.4278,3.4415,3.5784,3.6964,3.7106,3.7851,3.8476,3.8554,3.9258,3.9726,3.9608,3.8983,3.8593,3.8593,3.8594,3.8594,3.8594,3.9336,3.9766,3.9766,4.0508,4.0937,4.1055,4.1055,4.1094,4.1211,4.1211,4.1211,4.1211,4.1211,4.1211,4.1211,4.1211,4.1211,4.1211,4.1211,4.1211,4.1172,4.1094,4.1016,4.0937,4.1016,4.0976,4.0898,4.0898,4.0898,4.0898,4.0898,4.0814,4.0594,3.9811,3.9535,3.9307,3.856,3.8319,3.8291,3.8151,3.8119,3.8092,3.7912,3.7896,3.7844,3.7767,3.7714,3.7738,3.7738,3.7046,3.6423,3.6423,3.5769,3.5192,3.5192,3.5192,3.4692,3.3122,3.2891,3.2891,3.2891,3.2891,3.3199,3.3975,3.3353,3.2891,3.2891,3.3622,3.3699,3.2968,3.2891,3.2891,3.2891,3.2891,3.2891,3.2891,3.2891,3.3276,3.4052,3.4814,3.5577,3.6308,3.7161,3.6738,2.9342,0.0,0.0,0.0,3.1682,3.2266,3.3001,3.3613,3.401,3.401,3.5123,3.6156,3.6166,3.7182,3.8199,0.0,3.9101,3.9531,4.0039,4.043,4.0664,4.0664,4.0742,4.0625,4.0156,4.0117,4.0117,4.0117,4.0469,4.0664,4.0664,4.1016,4.1211,4.1211,4.1211,4.1406,4.1875,4.1914,4.2148,4.2656,4.2656,4.2656,4.2656,4.2656,4.2383,4.1914,4.1914,4.1641,4.1211,4.1211,4.1484,4.1914,4.1914,4.2226,4.2539,4.1562,4.1211,4.1211,4.1211,4.1171,4.1046,4.0595,4.0385,4.0217,3.983,3.963,3.9586,3.9528,3.9507,3.9371,3.8876,3.8738,3.8623,3.8123,3.8007,3.8007,3.8007,3.77,3.7469,3.7469,3.7199,3.6969,3.6969,3.6969,3.6699,3.5968,3.5045,3.4423,3.4423,3.4423,3.4538,3.493,3.4622,3.4423,3.4423,3.4737,3.4814,3.4423,3.4423,3.4423,3.4423,3.4853,3.5122,3.5122,3.5622,3.6045,3.6392,3.6776,3.7123,3.7469,3.7815,3.7892,3.0625,0.0,0.0,3.2487,3.3106,3.3631,3.3902,3.4491,3.5065,3.53,3.6404,3.7383,3.7617,3.8359,0.0,3.9805,4.0273,4.082,4.1445,4.1523,4.1601,4.1875,4.2187,4.2266,4.1914,4.1875,4.1875,4.1875,4.1875,4.1875,4.1875,4.1875,4.1875,4.1875,4.1875,4.2187,4.2734,4.2773,4.3086,4.3711,4.3711,4.3711,4.3711,4.3711,4.3359,4.2773,4.2773,4.2422,4.1875,4.1875,4.2226,4.2773,4.2732,4.3121,4.3511,4.2254,4.1827,4.1871,4.1871,4.1824,4.1722,4.1635,4.1513,4.1396,4.1093,4.0928,4.0823,4.0554,4.0516,4.0362,3.9785,3.9631,3.9477,3.8854,3.87,3.87,3.87,3.8507,3.8354,3.8354,3.8161,3.8007,3.8007,3.8007,3.8007,3.8007,3.6969,3.6192,3.6192,3.6192,3.6192,3.6192,3.6192,3.6192,3.6192,3.6192,3.6192,3.6192,3.6192,3.6192,3.6192,3.6731,3.7046,3.7046,3.77,3.8007,3.8007,3.8238,3.8354,3.8354,3.8815,3.9362,0.0,0.0,3.2305,3.3981,3.4506,3.4776,3.5628,3.5889,3.6211,3.7031,3.7266,3.7578,3.8398,3.9258,3.9883,3.9883,4.125,4.2344,4.2344,4.2344,4.2695,4.3516,4.2891,4.2734,0.0,4.3633,4.3633,4.3633,4.3633,4.3633,4.3633,4.3633,4.3633,4.3633,4.3633,4.3633,4.3672,4.3672,4.3672,4.3711,4.3711,4.3711,4.3711,4.3711,4.3672,4.3672,4.3672,4.3633,4.3633,4.3633,4.3633,4.3632,4.3609,4.3589,4.3582,4.3381,4.341,4.3511,4.3511,4.337,4.3149,4.3143,4.3108,4.2871,4.2016,4.1777,4.1585,4.0746,4.0516,4.0477,4.0477,4.0477,4.0477,4.0439,4.0439,4.0439,4.0439,3.9823,3.9246,3.9246,3.8584,3.8007,3.8007,3.8007,3.8007,3.8007,3.7969,3.793,3.793,3.793,3.793,3.793,3.793,3.793,3.793,3.793,3.793,3.793,3.793,3.793,3.793,3.7969,3.7969,3.7969,3.8007,3.8007,3.8007,3.8854,3.9246,3.9284,4.0931,4.1536,0.0,0.0,3.3828,3.4475,3.5071,3.5778,3.6637,3.6835,3.7109,3.7969,3.8633,3.9101,3.9414,4.0625,4.1562,4.1562,4.2539,4.3242,4.3242,4.3242,4.3359,4.3672,4.3945,0.0,0.0,0.0,0.0,4.3711,4.3711,4.3711,4.3711,4.3711,4.3711,4.3711,4.3711,4.3984,4.457,4.457,4.4844,4.543,4.543,4.543,4.543,4.543,4.5075,4.4434,4.4434,4.4064,4.3512,4.3512,4.3827,4.437,4.4341,4.4642,4.5106,4.5071,4.507,4.4929,4.3833,4.3419,4.3335,4.3239,4.3169,4.3101,4.2779,4.2662,4.2585,4.2316,4.2239,4.2239,4.2239,4.2239,4.2239,4.2239,4.2239,4.2239,4.2239,4.2008,4.1816,4.1816,4.1585,4.1393,4.1393,4.0893,4.0315,3.9746,3.87,3.8007,3.8007,3.8007,3.8007,3.8007,3.8007,3.8007,3.8007,3.8007,3.8007,3.8007,3.8007,3.8007,3.8007,3.8546,3.8854,3.8854,3.94,3.9931,4.0508,4.0572,4.0912,4.1409,4.1753,4.1867,0.0,3.3778,3.4798,3.5468,3.6055,3.668,3.7578,3.7773,3.8008,3.8867,3.9492,4.0,4.0312,4.1484,4.2383,4.2383,4.3398,4.4141,4.4141,4.4141,4.4297,4.4609,4.4844,0.0,0.0,0.0,0.0,4.4648,4.4648,4.4648,4.4648,4.4648,4.4648,4.4648,4.4648,4.4883,4.5469,4.5469,4.5742,4.6289,4.6289,4.6288,4.6245,4.6245,4.5836,4.5192,4.5192,4.4848,4.4271,4.4271,4.4625,4.5131,4.5084,4.5419,4.5846,4.5792,4.5783,4.5592,4.4583,4.4245,4.4181,4.4077,4.4042,4.3982,4.3627,4.3547,4.347,4.3162,4.3085,4.3085,4.3085,4.3085,4.3085,4.3085,4.3085,4.3085,4.3085,4.3085,4.3085,4.3085,4.3085,4.3085,4.3085,4.2624,4.2085,4.1508,4.0508,3.9585,3.8969,3.8892,3.9008,3.9315,3.9084,3.9161,3.9777,3.9546,3.9508,3.9815,3.9815,3.9815,3.9815,4.0354,4.0662,4.0662,4.1003,4.1498,4.2064,4.1719,4.1835,4.2329,4.2421,4.2409,3.4258,3.4726,3.5156,3.6875,3.7305,3.7539,3.8476,3.8672,3.8906,3.9805,3.9961,4.0234,0.0,0.0,4.2461,4.2539,4.3945,4.5078,4.5078,4.5078,4.5351,0.0,0.0,0.0,0.0,0.0,0.0,4.6289,0.0,4.6289,4.6289,4.6289,4.6289,4.6289,4.6289,4.6289,4.6289,4.6289,4.6289,4.6289,4.6289,4.6204,4.6084,4.6084,4.6008,4.587,4.587,4.5905,4.5861,4.5861,4.5861,4.5891,4.5866,4.5841,4.5782,4.5709,4.5633,4.562,4.5747,4.5727,4.5594,4.5594,4.5594,4.5441,4.4624,4.4355,4.4201,4.3431,4.3239,4.3239,4.3239,4.3239,4.3239,4.3239,4.3239,4.3239,4.3239,4.3239,4.3239,4.3239,4.3239,4.3201,4.3162,4.3162,4.3162,4.3124,4.3085,4.2508,4.0862,4.0631,4.0931,4.1777,4.1123,4.1285,4.297,4.2354,4.2239,4.3047,4.3085,4.3077,4.3069,4.3077,4.3077,4.3069,4.268,4.2502,4.2578,4.2205,4.2059,4.2134,4.2937,4.3127,3.457,3.5156,3.5937,3.7031,3.7305,3.7695,3.9219,3.957,3.9805,4.0703,4.0859,4.1133,0.0,0.0,0.0,4.4219,4.5234,0.0,4.5976,4.5976,0.0,0.0,0.0,4.6055,4.6289,4.6289,0.0,0.0,4.6289,4.6289,4.6289,4.6289,4.6289,4.6289,4.6289,4.6289,4.6289,4.6289,4.6247,4.6147,4.6147,4.608,4.5963,4.5963,4.59,4.5846,4.5846,4.577,4.5681,4.5681,4.5681,4.575,4.6389,4.621,4.5748,4.6334,4.6163,4.5603,4.5662,4.5637,4.5594,4.5594,4.5594,4.5556,4.5325,4.5287,4.5248,4.5017,4.4979,4.4979,4.4979,4.4979,4.4979,4.4979,4.4979,4.4979,4.4979,4.4979,4.4979,4.4979,4.4979,4.4748,4.4124,4.397,4.3778,4.3201,4.3085,4.2931,4.247,4.2431,4.2508,4.2739,4.2585,4.2624,4.3047,4.2893,4.2854,4.3085,4.3085,4.297,4.2661,4.2953,4.2961,4.2651,4.2543,4.2806,4.3454,4.2872,4.2907,4.3482,4.3457,4.3398,3.5156,3.5898,3.6797,3.7656,3.8164,3.8789,4.0156,4.0469,4.0625,4.1094,4.1484,0.0,0.0,0.0,0.0,0.0,0.0,0.0,4.6914,4.7187,4.7305,0.0,4.7226,0.0,4.7422,4.7109,4.6875,0.0,4.6523,4.6289,4.6289,4.6289,4.6289,4.6289,4.6289,4.6444,4.6787,4.7177,4.7274,4.7164,4.7164,4.7073,4.6951,4.6951,4.6907,4.6808,0.0,4.6783,4.6701,4.6701,4.6701,4.674,4.724,4.7124,4.674,4.724,4.7124,4.6701,4.6701,4.6701,4.6624,4.6278,4.6163,4.624,4.6586,4.6701,4.6701,4.6701,4.6701,4.6701,4.6701,4.6701,4.6701,4.6701,4.6701,4.6701,4.6701,4.6701,4.6586,4.624,4.5864,4.5441,4.4932,4.4855,4.4701,4.4278,4.4201,4.4201,4.4201,4.3547,4.3239,4.3585,4.3316,4.3393,4.4124,4.3855,4.3778,4.4162,4.4201,4.411,4.3886,4.3944,4.3857,4.3656,4.331,4.3391,4.3882,4.3379,4.3331,4.3791,4.358,4.3515,3.5976,3.6797,3.7695,3.8555,3.9336,4.0117,4.1016,4.1211,4.1211,4.1211,0.0,0.0,4.2539,0.0,4.6172,4.6289,0.0,4.832,4.7695,4.8242,4.8476,4.7851,4.8437,4.8906,4.8906,4.8203,4.7734,4.7617,4.6914,4.6406,4.6328,4.6406,4.6523,4.66,4.6599,4.6898,4.7552,4.8293,4.8599,4.8476,4.8476,4.8404,4.8275,4.8275,4.8221,4.8086,0.0,0.0,4.8086,4.8086,4.8086,4.8125,4.824,4.8202,4.8125,4.824,4.8202,4.8086,4.8086,4.8086,4.7971,4.7278,4.7038,4.7192,4.7894,4.8086,4.8086,4.8086,4.8086,4.8086,4.8086,4.8086,4.8086,4.8086,4.8086,4.8086,4.8086,4.8086,4.7894,4.7192,4.6432,4.5902,4.5787,4.5787,4.5748,4.5633,4.5594,4.5594,4.5594,4.4316,4.3701,4.4393,4.3855,4.4,4.5396,4.4849,4.4716,4.5419,4.5457,4.5448,4.541,4.5169,4.5,4.4954,4.4332,4.3982,4.3982,4.3644,4.3515,4.3515,4.3515,4.3515,3.7031,3.7695,3.8594,3.9453,3.9805,4.0117,4.1016,4.1211,0.0,0.0,0.0,4.2617,4.3359,4.4414,0.0,4.6172,0.0,0.0,0.0,0.0,4.8047,0.0,0.0,0.0,0.0,0.0,0.0,0.0,0.0,4.707,4.6328,4.6992,4.7653,4.8248,4.8185,4.8167,4.8301,4.8461,4.8476,4.8321,4.8321,4.8268,4.8141,4.8141,4.8123,4.8086,4.8086,0.0,4.8086,4.8086,4.8086,4.8163,4.8894,4.874,4.8202,4.8894,4.8702,4.8086,4.8086,4.8086,4.8086,4.7932,4.7894,4.7932,4.8048,4.8086,4.8086,4.8086,4.8086,4.8086,4.8086,4.8086,4.8086,4.8086,4.8086,4.8086,4.8086,4.8086,4.8048,4.7932,4.7778,4.7471,4.6778,4.6663,4.6432,4.571,4.5594,4.5594,4.5594,4.5364,4.521,4.5364,4.5248,4.5159,4.5173,4.5038,4.4903,4.4762,4.4788,4.4625,4.428,4.4535,4.4521,4.4204,4.4058,4.3982,4.3982,4.3644,4.3515,4.3515,4.3515,4.3515,3.7851,3.8594,3.9375,3.9805,4.0234,4.0703,4.1094,0.0,0.0,0.0,0.0,4.3086,4.3047,0.0,0.0,0.0,0.0,0.0,0.0,0.0,0.0,0.0,0.0,0.0,0.0,0.0,0.0,0.0,0.0,4.7143,4.6328,4.7065,4.7817,4.8557,4.8967,4.9132,4.9051,4.9523,4.9671,4.9556,4.9556,4.9542,4.9433,4.9433,4.9433,4.9433,4.9433,0.0,4.9433,4.9433,4.9433,4.9471,4.9894,4.9817,4.951,4.9933,4.9817,4.9433,4.9433,4.9433,4.9433,4.9433,4.9163,4.8856,4.9317,4.9433,4.9433,4.9433,4.9433,4.9433,4.9433,4.9433,4.9433,4.9433,4.9433,4.9433,4.9433,4.874,4.8086,4.8086,4.7778,4.7355,4.6962,4.6885,4.6778,4.6355,4.5745,4.5361,4.5361,4.5562,4.5606,4.538,4.5706,4.567,4.491,4.4849,4.4776,4.4624,4.4612,4.4495,4.4318,4.429,4.419,4.3998,4.3818,4.3742,4.3742,4.358,4.3515,4.3515,4.3515,4.3515,3.8672,3.9492,4.0195,4.0195,4.0703,4.1211,4.1211,4.1211,0.0,0.0,0.0,0.0,0.0,0.0,0.0,0.0,0.0,0.0,0.0,0.0,0.0,0.0,0.0,0.0,0.0,0.0,0.0,0.0,0.0,0.0,4.6787,4.7287,4.8024,4.8971,4.9643,4.9951,4.9838,5.0511,5.0816,5.0712,5.0712,5.0712,5.0712,5.0712,5.0712,5.0712,5.0712,0.0,0.0,5.0712,5.0712,5.0712,5.0712,5.0712,5.0712,5.0712,5.0712,5.0712,5.0712,5.0712,5.0712,5.0712,5.025,4.9817,5.0481,5.0712,5.0712,5.0712,5.0712,5.0712,5.0712,5.0712,5.0712,5.0712,5.0558,5.0442,5.0442,4.9202,4.8086,4.8086,4.774,4.7299,4.6858,4.6925,4.6916,4.6474,4.5589,4.5053,4.5243,4.5723,4.5897,4.5418,4.5855,4.5809,4.4821,4.4568,4.4428,4.4383,4.4383,4.4383,4.4383,4.408,4.3896,4.3896,4.3647,4.3571,4.3754,4.3571,4.3698,4.4029,4.3828,4.3828,3.9766,4.043,4.1094,4.1094,4.1133,4.1211,4.1211,0.0,0.0,0.0,4.2539,4.3437,4.2578,0.0,0.0,0.0,0.0,0.0,0.0,0.0,0.0,0.0,0.0,0.0,0.0,0.0,0.0,0.0,0.0,0.0,4.8284,4.8266,4.898,5.0639,5.0653,5.0605,5.0587,5.0664,5.0693,5.0712,5.0712,5.0712,5.0712,5.0712,5.0712,5.0712,5.0712,0.0,0.0,5.0712,5.0712,5.0712,5.0712,5.0712,5.0712,5.0712,5.0712,5.0712,5.0712,5.0712,5.0712,5.0712,5.0635,5.0596,5.0673,5.0712,5.0712,5.0712,5.0712,5.0712,5.0712,5.0712,5.0712,5.0712,5.0087,4.951,4.951,4.8779,4.8086,4.8086,4.8663,4.8558,4.6664,4.7002,4.6923,4.5092,4.4714,4.4915,4.5644,4.641,4.6737,4.6305,4.6041,4.5646,4.5192,4.449,4.3927,4.3614,4.3597,4.3597,4.3597,4.3563,4.3566,4.3566,4.3532,4.3864,4.4599,4.3864,4.4232,4.5663,4.4929,4.4966,4.1289,4.2031,4.2695,4.2695,4.2305,4.1914,4.1914,0.0,0.0,4.1836,4.2851,4.3594,4.3242,4.4883,0.0,0.0,0.0,0.0,0.0,0.0,0.0,0.0,0.0,0.0,0.0,0.0,0.0,0.0,0.0,0.0,4.9018,4.9071,4.9622,5.0743,5.0721,5.0712,5.0712,5.0712,5.0712,5.0712,5.0712,5.0712,5.0712,5.0712,5.0712,5.0712,5.0712,0.0,0.0,5.0712,5.0712,5.0712,5.0712,5.0712,5.0712,5.0712,5.0712,5.0712,5.0712,5.0712,5.0712,5.0712,5.0712,5.0712,5.0712,5.0712,5.0712,5.0712,5.0712,5.0712,5.0712,5.0712,5.0558,5.0048,4.9663,4.924,4.874,4.7779,4.7016,4.7016,4.7144,4.6982,4.6126,4.6304,4.6253,4.543,4.4688,4.4345,4.4668,4.5242,4.5741,4.6057,4.618,4.5864,4.4983,4.4173,4.3664,4.3515,4.3515,4.3718,4.4195,4.4232,4.4452,4.4929,4.4929,4.5112,4.5406,4.5112,4.5259,4.5883,4.5553,4.559,4.2266,4.3047,4.3711,4.3711,4.3242,4.2734,0.0,0.0,4.2031,4.2344,4.3281,4.4023,4.375,4.5117,4.6016,0.0,0.0,0.0,0.0,0.0,0.0,0.0,0.0,0.0,0.0,0.0,0.0,0.0,0.0,0.0,0.0,4.974,5.0173,5.0673,5.0712,5.0712,5.0712,5.0712,5.0712,5.0712,5.0712,5.0712,5.0712,5.0712,5.0712,5.0712,0.0,0.0,0.0,5.0712,5.0712,5.0712,5.0712,5.0712,5.0712,5.0712,5.0712,5.0712,5.0712,5.0712,5.0712,5.0712,5.0712,5.0712,5.0712,5.0712,5.0712,5.0712,5.0712,5.0635,5.0366,5.0327,5.0164,4.9548,4.8923,4.8326,4.7712,4.6653,4.5803,4.5803,4.5799,4.5679,4.5345,4.5481,4.559,4.5498,4.4743,4.439,4.4872,4.5233,4.5718,4.6507,4.6665,4.6254,4.513,4.4085,4.3625,4.3828,4.3864,4.4232,4.5039,4.5039,4.5333,4.5883,4.5883,4.603,4.625,4.603,4.614,4.6617,4.6361,4.6397,4.2383,4.3047,4.3711,4.3711,4.3672,4.3476,0.0,4.3047,4.3437,4.2578,4.3789,4.4726,4.3867,4.5117,4.6016,0.0,0.0,0.0,0.0,0.0,0.0,0.0,0.0,0.0,0.0,0.0,0.0,0.0,0.0,0.0,0.0,5.0212,5.0673,5.0712,5.0712,5.0712,5.0712,5.0712,5.0712,5.0712,5.0712,5.0712,5.0712,5.0712,5.0712,0.0,0.0,0.0,0.0,5.0712,5.0712,5.0712,5.0712,5.0712,5.0712,5.0712,5.0712,5.0712,5.0712,5.0712,5.0712,5.0712,5.0712,5.0712,5.0712,5.0712,5.0712,5.0712,5.0712,5.0519,4.9625,4.9394,4.9394,4.9394,4.7824,4.632,4.632,4.543,4.4612,4.4612,4.5253,4.541,4.4222,4.4736,4.517,4.476,4.4709,4.5259,4.6856,4.7076,4.7369,4.8196,4.7572,4.6764,4.5957,4.4415,4.3828,4.4635,4.4709,4.5039,4.5847,4.5883,4.5883,4.5883,4.5883,4.6287,4.7076,4.6287,4.6728,4.8269,4.7443,4.7516,4.2383,4.3047,4.3711,4.3711,4.3242,4.2734,4.2461,4.2617,4.2891,4.3203,4.4219,4.5117,4.543,4.5937,4.6406,4.6719,0.0,0.0,0.0,0.0,0.0,0.0,0.0,0.0,0.0,0.0,0.0,0.0,0.0,0.0,0.0,5.0558,5.0712,5.0712,5.0712,5.0712,5.0712,5.0712,5.0712,5.0712,5.0712,5.0712,5.0712,5.0712,0.0,0.0,0.0,0.0,0.0,5.0712,5.0712,5.0712,5.0712,5.0712,5.0712,5.0712,5.0712,5.0712,5.0712,5.0712,5.0712,5.0712,5.0712,5.0712,5.0712,5.0712,5.0712,5.0712,5.0071,4.9335,4.9127,4.8865,4.8504,4.7884,4.7264,4.6606,4.6076,4.5457,4.4998,4.4998,4.5047,4.5103,4.5284,4.5525,4.5657,4.5534,4.5516,4.57,4.6214,4.6287,4.6581,4.7369,4.6746,4.6397,4.6709,4.5736,4.5259,4.5516,4.5516,4.5883,4.6672,4.6709,4.6966,4.7535,4.7535,4.7682,4.7939,4.7682,4.7792,4.8306,4.8049,4.8379,0.0,4.3047,4.3789,4.4101,4.3789,4.3398,4.3398,4.3633,4.3945,4.4141,4.4883,4.5664,4.6211,4.6289,4.6484,4.7031,0.0,0.0,0.0,0.0,0.0,0.0,0.0,0.0,0.0,0.0,0.0,0.0,0.0,0.0,0.0,5.0712,5.0712,5.0712,5.0712,5.0712,5.0712,5.0712,5.0712,5.0712,5.0712,5.0712,5.0712,5.0712,0.0,0.0,0.0,0.0,0.0,5.0712,5.0712,5.0712,5.0712,5.0712,5.0712,5.0712,5.0712,5.0712,5.0712,5.0712,5.0712,5.0712,5.0604,5.0472,5.0472,5.0353,5.0106,4.9621,4.8925,4.8334,4.8225,4.7996,4.7669,4.7127,4.6887,4.6621,4.6119,4.5743,4.5453,4.5453,4.5306,4.5296,4.581,4.5883,4.5993,4.6324,4.6361,4.6471,4.6764,4.6801,4.7021,4.748,4.7095,4.7021,4.7516,4.6544,4.603,4.6324,4.6361,4.6709,4.7516,4.7553,4.7773,4.8306,4.8306,4.8306,4.8306,4.8636,4.8783,4.8783,4.9114,4.9517,0.0,4.2891,4.3711,4.4531,4.4726,4.4726,4.4805,4.5508,0.0,4.5156,4.5703,4.6289,4.6289,4.6289,4.6328,4.6367,0.0,0.0,0.0,0.0,0.0,0.0,0.0,0.0,0.0,0.0,0.0,0.0,0.0,0.0,0.0,5.0712,5.0712,5.0712,5.0712,5.0712,5.0712,5.0712,5.0712,5.0712,5.0712,5.0712,5.0712,5.0712,0.0,0.0,0.0,0.0,0.0,5.0712,5.0712,5.0712,5.0712,5.0712,5.0712,5.0712,5.0712,5.0712,5.0712,5.0712,5.0702,5.0682,5.038,5.0037,4.996,4.9663,4.9094,4.7961,4.7612,4.7526,4.7143,4.7019,4.7005,4.7005,4.6712,4.6434,4.6434,4.6205,4.5993,4.5993,4.5993,4.5993,4.6067,4.6067,4.6324,4.7076,4.7186,4.7443,4.8196,4.8306,4.8306,4.8306,4.8306,4.8306,4.8306,4.6948,4.6397,4.7149,4.7186,4.7516,4.8269,4.8306,4.8306,4.8306,4.8379,4.8416,4.8489,4.9297,4.9684,4.9721,5.0435,5.0839,4.1445,0.0,4.1836,4.2031,4.2109,4.2266,0.0,4.3672,0.0,0.0,0.0,0.0,0.0,0.0,0.0,0.0,0.0,0.0,0.0,0.0,0.0,0.0,0.0,0.0,0.0,0.0,0.0,0.0,0.0,0.0,0.0,5.0712,5.0712,5.0712,5.0712,5.0712,5.0712,5.0712,5.0712,5.0712,5.0712,5.0712,5.0712,5.0712,0.0,0.0,0.0,0.0,5.0712,5.0712,5.0712,5.0712,5.0712,5.0712,5.0712,5.0712,5.0712,5.0712,5.0712,5.0712,5.0634,5.0336,4.9962,4.9518,4.8837,4.8588,4.8553,4.8926,4.8384,4.7641,4.7564,4.7326,4.7089,4.7089,4.7001,4.6948,4.6948,4.6856,4.6819,4.6819,4.6819,4.7003,4.7645,4.7755,4.7792,4.8012,4.7993,4.8086,4.8269,4.8306,4.8306,4.8306,4.8306,4.8306,4.8306,4.7939,4.7829,4.8012,4.7993,4.8122,4.8306,4.8306,4.8306,4.8306,4.893,4.9591,5.0215,5.0435,5.0508,5.0508,5.0729,5.1132,4.1211,4.1484,4.1836,4.2266,4.2656,4.3164,4.3984,0.0,0.0,0.0,0.0,0.0,0.0,0.0,0.0,0.0,0.0,0.0,0.0,0.0,0.0,0.0,0.0,0.0,0.0,0.0,0.0,0.0,0.0,0.0,0.0,5.0712,5.0712,5.0712,5.0712,5.0712,5.0712,5.0712,5.0712,5.0712,5.0712,5.0712,5.0712,5.0712,5.0712,0.0,0.0,0.0,5.0712,5.0712,5.0712,5.0712,5.0712,5.0712,5.0712,5.0712,5.0712,5.0654,5.0483,5.0313,5.0123,4.9898,4.9547,4.9143,4.8655,4.8402,4.831,4.8593,4.7906,4.7157,4.7379,4.7242,4.7113,4.7113,4.7369,4.7626,4.7626,4.7626,4.7626,4.7626,4.7626,4.7773,4.8233,4.8306,4.8306,4.8306,4.8306,4.8453,4.8857,4.8893,4.904,4.9407,4.9444,4.9444,4.9444,4.9444,4.9297,4.893,4.8893,4.904,4.9444,4.9444,4.9444,4.9444,4.9921,5.0362,5.0802,5.1169,5.1353,5.1353,5.172,5.2123,4.1367,4.1992,4.2734,4.3359,4.4062,4.4844,0.0,0.0,0.0,0.0,0.0,0.0,0.0,0.0,0.0,0.0,0.0,0.0,0.0,0.0,0.0,0.0,0.0,0.0,0.0,0.0,0.0,0.0,0.0,0.0,0.0,5.0712,5.0712,5.0712,5.0712,5.0712,5.0712,5.0712,5.0712,5.0712,5.0712,5.0712,5.0712,5.0712,5.0712,0.0,0.0,0.0,5.0712,5.0712,5.0712,5.0712,5.0712,5.0712,5.0712,5.0712,5.0644,5.0535,5.0147,4.9765,4.9401,4.9401,4.9139,4.8813,4.8813,4.8568,4.8235,4.7878,4.7239,4.6783,4.7187,4.7259,4.7259,4.7259,4.7773,4.8306,4.8306,4.8306,4.8306,4.8306,4.8416,4.8489,4.8489,4.86,4.8673,4.8673,4.8673,4.8967,4.9684,4.9794,5.0031,5.0729,5.0802,5.0802,5.0802,5.0802,5.0545,5.0014,4.9867,5.0088,5.0765,5.0802,5.0875,5.0986,5.0986,5.1059,5.1169,5.1867,5.216,5.2197,5.2894,5.3203,4.2031,4.2851,4.3359,4.2734,4.2695,4.3202,0.0,0.0,0.0,0.0,0.0,0.0,0.0,0.0,0.0,0.0,0.0,0.0,0.0,0.0,0.0,0.0,0.0,0.0,0.0,0.0,0.0,0.0,0.0,0.0,0.0,5.0712,5.0712,5.0712,5.0712,5.0712,5.0712,5.0712,5.0712,5.0712,5.0712,5.0712,5.0712,5.0712,5.0712,0.0,0.0,5.0712,5.0712,5.0712,5.0712,5.0712,5.0712,5.0712,5.0712,5.0712,5.0483,5.0147,4.9714,4.9326,4.8978,4.8978,4.8709,4.8383,4.8383,4.8363,4.8269,4.8235,4.8107,4.8015,4.8105,4.8122,4.8122,4.8122,4.8233,4.8306,4.8306,4.8306,4.8306,4.8306,4.8893,4.939,4.939,4.9958,5.0435,5.0435,5.0435,5.0472,5.0618,5.0618,5.0655,5.0802,5.0802,5.0802,5.0802,5.0802,5.1022,5.1573,5.0986,5.0655,5.0802,5.0802,5.1132,5.1793,5.183,5.216,5.2858,5.2968,5.3041,5.3041,5.313,5.3203,4.1641,4.2344,4.3007,4.3038,4.3736,4.4587,0.0,0.0,0.0,0.0,0.0,0.0,0.0,0.0,0.0,0.0,0.0,0.0,0.0,0.0,0.0,0.0,0.0,0.0,0.0,0.0,0.0,0.0,0.0,0.0,0.0,0.0,5.0712,5.0712,5.0712,5.0712,5.0712,5.0712,5.0712,5.0712,5.0712,5.0712,5.0712,5.0712,5.0712,5.0712,0.0,5.0712,5.0712,5.0712,5.0712,5.0712,5.0712,5.0712,5.0712,5.0712,5.0313,4.9765,4.9561,4.9092,4.8568,4.8568,4.8458,4.8306,4.8306,4.8306,4.8306,4.8306,4.8306,4.8306,4.8306,4.8306,4.8306,4.8306,4.8306,4.8306,4.8306,4.8306,4.8416,4.8857,4.9297,4.9757,5.0178,5.0545,5.0802,5.0802,5.0802,5.0949,5.1389,5.1463,5.161,5.205,5.2123,5.2123,5.2123,5.2123,5.2087,5.1977,5.205,5.2123,5.2123,5.2123,5.227,5.2637,5.2637,5.2821,5.3203,5.3203,5.3203,5.3203,5.3203,5.3203,4.1445,4.1914,4.2576,0.0,0.0,0.0,0.0,0.0,0.0,0.0,0.0,0.0,0.0,0.0,0.0,0.0,0.0,0.0,0.0,0.0,0.0,0.0,0.0,0.0,0.0,0.0,0.0,0.0,0.0,0.0,0.0,0.0,5.0712,5.0712,5.0712,5.0712,5.0712,5.0712,5.0712,5.0712,5.0712,5.0712,5.0712,5.0712,5.0712,5.0712,5.0712,5.0712,5.0712,5.0712,5.0712,5.0712,5.0712,5.0712,5.0702,5.0604,5.0123,4.9475,4.9386,4.8898,4.8306,4.8306,4.8306,4.8306,4.8306,4.8306,4.8306,4.8306,4.8306,4.8306,4.8306,4.8306,4.8306,4.8306,4.8453,4.86,4.86,4.8746,4.9077,4.9664,4.9994,5.0381,5.0986,5.1242,5.1353,5.1353,5.1353,5.1573,5.2197,5.227,5.2527,5.3151,5.3203,5.3203,5.3203,5.3203,5.2931,5.2307,5.2858,5.3203,5.3203,5.3203,5.3203,5.3203,5.3203,5.3203,5.3203,5.3203,5.3298,5.3482,5.3482,5.3592,4.2109,4.2344,4.2574,4.325,0.0,0.0,0.0,0.0,0.0,0.0,0.0,0.0,0.0,0.0,0.0,0.0,0.0,0.0,0.0,0.0,0.0,0.0,0.0,0.0,0.0,0.0,0.0,0.0,0.0,0.0,0.0,0.0,0.0,5.0712,5.0712,5.0712,5.0712,5.0712,5.0712,5.0712,5.0712,5.0712,5.0712,5.0712,5.0712,5.0712,5.0712,5.0712,5.0712,5.0712,5.0712,5.0712,5.0712,5.0712,5.0644,5.0291,4.9885,4.9445,4.9059,4.8676,4.8306,4.8306,4.8306,4.8306,4.8306,4.8306,4.8306,4.8306,4.8306,4.8306,4.8306,4.8306,4.8306,4.8306,4.893,4.95,4.95,5.0105,5.0655,5.0692,5.1316,5.183,5.1903,5.2527,5.302,5.302,5.302,5.3078,5.3115,5.3115,5.3151,5.3167,5.3203,5.3203,5.3203,5.3203,5.3167,5.3093,5.3167,5.3203,5.3203,5.3203,5.3203,5.3203,5.3203,5.3203,5.3203,5.3203,5.3592,5.4326,5.4326,5.4693,4.1474,4.1936,4.2498,4.3136,0.0,0.0,0.0,0.0,0.0,0.0,0.0,0.0,0.0,0.0,0.0,0.0,0.0,0.0,0.0,0.0,0.0,0.0,0.0,0.0,0.0,0.0,0.0,0.0,0.0,0.0,0.0,0.0,0.0,5.0712,5.0712,5.0712,5.0712,5.0712,5.0712,5.0712,5.0712,5.0712,5.0712,5.0712,5.0712,5.0712,5.0712,5.0712,5.0712,5.0712,5.0712,5.0712,5.0712,5.0712,5.0634,5.023,4.9859,4.9445,4.9027,4.864,4.8306,4.8306,4.8306,4.8306,4.8306,4.8306,4.8416,4.8967,4.9114,4.9114,4.9114,4.9114,4.9224,4.9738,5.0105,5.0362,5.0362,5.0582,5.0949,5.1463,5.1793,5.216,5.2674,5.3004,5.3203,5.3203,5.3203,5.3203,5.3203,5.3203,5.3203,5.3203,5.3665,5.3959,5.3959,5.4399,5.4693,5.4693,5.3739,5.3203,5.3203,5.3203,5.3445,5.3959,5.3959,5.4179,5.4693,5.4693,5.484,5.5133,5.5133,5.5317,4.0964,4.1373,4.2,0.0,0.0,0.0,0.0,0.0,0.0,0.0,0.0,0.0,0.0,0.0,0.0,0.0,0.0,0.0,0.0,0.0,0.0,0.0,0.0,0.0,0.0,0.0,0.0,0.0,0.0,0.0,0.0,0.0,0.0,0.0,5.0712,5.0712,5.0712,5.0712,5.0712,5.0712,5.0712,5.0712,5.0712,5.0712,5.0712,5.0712,5.0712,5.0712,5.0712,5.0712,5.0624,5.0504,5.0504,5.0451,5.0302,4.9999,4.9645,4.9265,4.8978,4.864,4.8306,4.8306,4.8306,4.8306,4.8306,4.8489,4.882,4.9427,4.9794,5.0051,5.0308,5.0161,5.0105,5.0655,5.0986,5.1169,5.1169,5.1389,5.172,5.227,5.238,5.2564,5.3115,5.3203,5.3203,5.3203,5.3203,5.3203,5.3203,5.3445,5.3702,5.3922,5.4436,5.4766,5.4766,5.528,5.5596,5.5596,5.4583,5.3959,5.3959,5.3702,5.3959,5.4766,5.4766,5.506,5.5596,5.5596,5.5721,5.5978,5.5978,5.6088,4.0843,4.0817,0.0,0.0,0.0,0.0,0.0,0.0,0.0,0.0,0.0,0.0,0.0,0.0,0.0,0.0,0.0,0.0,0.0,0.0,0.0,0.0,0.0,0.0,0.0,0.0,0.0,0.0,0.0,0.0,0.0,0.0,0.0,0.0,5.0712,5.0712,5.0712,5.0712,5.0712,5.0712,5.0712,5.0712,5.0712,5.0712,5.0712,5.0712,5.0712,5.0712,5.0712,5.0702,5.0462,5.0111,5.0111,4.9859,4.9489,4.9489,4.9249,4.8878,4.8915,4.864,4.8306,4.8306,4.8306,4.8306,4.8306,4.893,4.961,4.961,5.0178,5.0986,5.1793,5.1426,5.0839,5.0839,5.1426,5.2013,5.2013,5.2637,5.3203,5.3203,5.3203,5.3203,5.3203,5.3203,5.3203,5.3203,5.3203,5.3203,5.3203,5.3922,5.473,5.55,5.5633,5.5633,5.5633,5.5611,5.5611,5.5611,5.5611,5.5633,5.5596,5.484,5.4803,5.5596,5.5633,5.5611,5.5611,5.5611,5.6014,5.6822,5.6822,5.7262,4.0762,0.0,0.0,0.0,0.0,0.0,0.0,0.0,0.0,0.0,0.0,0.0,0.0,0.0,0.0,0.0,0.0,0.0,0.0,0.0,0.0,0.0,0.0,0.0,0.0,0.0,0.0,0.0,0.0,0.0,0.0,0.0,0.0,0.0,5.0712,5.0712,5.0712,5.0712,5.0712,5.0712,5.0712,5.0712,5.0712,5.0712,5.0712,5.0712,5.0712,5.0712,5.0692,5.038,5.0195,5.0049,4.9806,4.9603,4.946,4.9187,4.8994,4.8881,4.8568,4.8383,4.8306,4.8306,4.8306,4.8416,4.9003,4.939,4.9831,5.0969,5.1463,5.183,5.2637,5.2674,5.2491,5.2491,5.2674,5.2858,5.2858,5.3041,5.3203,5.3203,5.3203,5.3203,5.3203,5.3203,5.3203,5.3203,5.3203,5.3387,5.3959,5.473,5.5317,5.5596,5.6088,5.6455,5.6455,5.6969,5.7299,5.7299,5.6748,5.6198,5.5611,5.5354,5.5611,5.6418,5.6455,5.6712,5.7299,5.7299,5.7409,5.7629,5.7629,5.7776,4.1493,0.0,0.0,0.0,0.0,0.0,0.0,0.0,0.0,0.0,0.0,0.0,0.0,0.0,0.0,0.0,0.0,0.0,0.0,0.0,0.0,0.0,0.0,0.0,0.0,0.0,0.0,0.0,0.0,0.0,0.0,0.0,0.0,0.0,5.0712,5.0712,5.0712,5.0712,5.0712,5.0712,5.0712,5.0712,5.0712,5.0712,5.0712,5.0712,5.0712,5.0614,5.0451,5.0195,4.9924,4.9603,4.9356,4.9155,4.8978,4.8744,4.8639,4.864,4.8364,4.8306,4.8306,4.8306,4.8526,4.8893,4.9463,5.0051,5.0749,5.172,5.2234,5.2601,5.3057,5.3203,5.3203,5.3203,5.3203,5.3203,5.3203,5.3203,5.3203,5.3203,5.3203,5.3203,5.3203,5.3203,5.3314,5.3628,5.3959,5.4436,5.5244,5.5794,5.6198,5.6528,5.7005,5.7299,5.7299,5.7703,5.7997,5.7997,5.7556,5.7042,5.6565,5.6235,5.6455,5.7262,5.7299,5.7519,5.7997,5.7997,5.7997,5.7997,5.7997,5.7997,0.0,0.0,0.0,0.0,0.0,0.0,0.0,0.0,0.0,0.0,0.0,0.0,0.0,0.0,0.0,0.0,0.0,0.0,0.0,0.0,0.0,0.0,0.0,0.0,0.0,0.0,0.0,0.0,0.0,0.0,0.0,0.0,0.0,0.0,5.0712,5.0712,5.0712,5.0712,5.0712,0.0,5.0712,5.0712,5.0712,5.0712,5.0712,5.0712,5.0712,5.0472,5.0111,5.0037,4.9589,4.8915,4.8881,4.8622,4.8306,4.8306,4.8306,4.8306,4.8306,4.8306,4.8306,4.8379,4.893,4.9647,4.9757,5.0859,5.2013,5.2087,5.2637,5.3203,5.3203,5.3203,5.3203,5.3203,5.3203,5.3203,5.3203,5.3203,5.3203,5.3203,5.3203,5.3203,5.3298,5.3314,5.3592,5.4399,5.517,5.5978,5.6712,5.6859,5.7189,5.7923,5.7997,5.7997,5.7997,5.7997,5.7997,5.7997,5.7997,5.7997,5.7997,5.7299,5.7262,5.7997,5.7997,5.7997,5.7997,5.7997,5.7997,5.7997,5.7997,5.7997,0.0,0.0,0.0,0.0,0.0,0.0,0.0,0.0,0.0,0.0,0.0,0.0,0.0,0.0,0.0,0.0,0.0,0.0,0.0,0.0,0.0,0.0,0.0,0.0,0.0,0.0,0.0,0.0,0.0,0.0,0.0,0.0,0.0,5.0712,5.0712,5.0712,5.0712,5.0712,5.0712,0.0,5.0712,5.0712,5.0712,5.0712,5.0712,5.0712,5.0712,5.0472,5.0087,4.9779,4.9341,4.8881,4.855,4.8401,4.8306,4.8306,4.8306,4.8306,4.8306,4.8306,4.8416,4.9077,4.9463,4.9831,5.1116,5.172,5.2123,5.2747,5.3078,5.3203,5.3203,5.3203,5.3203,5.3203,5.3203,5.3203,5.3203,5.3203,5.3203,5.3203,5.3203,5.3387,5.4032,5.4142,5.4399,5.5207,5.6014,5.6602,5.6785,5.7336,5.7813,5.796,5.7997,5.7997,5.7997,5.7997,5.7997,5.7997,5.7997,5.7997,5.7997,5.7813,5.7813,5.7997,5.7997,5.7997,5.7997,5.7997,5.7997,5.7997,5.7997,5.7997,0.0,0.0,0.0,0.0,0.0,0.0,0.0,0.0,0.0,0.0,0.0,0.0,0.0,0.0,0.0,0.0,0.0,0.0,0.0,0.0,0.0,0.0,0.0,0.0,0.0,0.0,0.0,0.0,0.0,0.0,0.0,5.0712,5.0712,5.0712,5.0712,5.0712,5.0712,5.0712,5.0712,5.0712,5.0712,5.0712,5.0712,5.0712,5.0712,5.0702,5.0493,5.0183,4.9792,4.9386,4.8961,4.8586,4.8364,4.8306,4.8306,4.8306,4.8306,4.8306,4.8306,4.8563,4.9003,4.9463,5.0124,5.0932,5.1777,5.227,5.2674,5.3078,5.3203,5.3203,5.3203,5.3203,5.3203,5.3203,5.3203,5.3203,5.3203,5.3203,5.3203,5.3203,5.3518,5.3922,5.4326,5.506,5.5684,5.6124,5.6859,5.7373,5.7373,5.774,5.7997,5.7997,5.7997,5.7997,5.7997,5.7997,5.7997,5.7997,5.7997,5.7997,5.7997,5.7997,5.7997,5.7997,5.7997,5.7997,5.7997,5.7997,5.7997,5.7997,5.7997,5.7997,0.0,0.0,0.0,0.0,0.0,0.0,0.0,0.0,0.0,0.0,0.0,0.0,0.0,0.0,0.0,0.0,0.0,0.0,0.0,0.0,0.0,0.0,0.0,0.0,0.0,0.0,0.0,0.0,0.0,0.0,5.0712,5.0712,5.0712,5.0712,5.0712,5.0712,5.0712,5.0712,5.0712,5.0712,5.0712,5.0644,5.0604,5.0604,5.0604,5.0584,5.023,4.9846,4.9371,4.9027,4.8639,4.8306,4.8306,4.8306,4.8306,4.8306,4.8416,4.8526,4.8526,4.9077,4.9831,4.9978,5.0932,5.2013,5.216,5.2674,5.3203,5.3203,5.3203,5.3203,5.3203,5.3203,5.3203,5.3203,5.3314,5.335,5.3203,5.3314,5.3408,5.3408,5.4179,5.4803,5.4803,5.6051,5.7005,5.7005,5.7556,5.7997,5.7997,5.7997,5.7997,5.7997,5.7997,5.7997,5.7997,5.7997,5.7997,5.7997,5.7997,5.7997,5.7997,5.7997,5.7997,5.7997,5.7997,5.7997,5.7997,5.7997,5.7997,5.7997,5.7997,5.7997,0.0,0.0,0.0,0.0,0.0,0.0,0.0,0.0,0.0,0.0,0.0,0.0,0.0,0.0,0.0,0.0,0.0,0.0,0.0,0.0,0.0,0.0,0.0,0.0,0.0,0.0,0.0,0.0,0.0,0.0,5.0712,5.0712,5.0712,5.0712,5.0712,5.0712,5.0712,5.0712,5.0712,5.0712,5.0712,5.0504,5.0171,5.0171,5.0171,5.0171,5.0135,4.9673,4.8961,4.8911,4.8639,4.8306,4.8306,4.8306,4.8306,4.8306,4.8783,4.9427,4.9427,4.9958,5.0765,5.1426,5.1793,5.2123,5.2821,5.3115,5.3203,5.3203,5.3203,5.3203,5.3203,5.3203,5.3203,5.3203,5.3739,5.4069,5.3371,5.3739,5.4252,5.4252,5.5464,5.6492,5.6492,5.7226,5.785,5.785,5.7923,5.7997,5.7997,5.7997,5.7997,5.7997,5.7997,5.7997,5.7997,5.7997,5.7997,5.7997,5.7997,5.7997,5.7997,5.7997,5.7997,5.7997,5.7997,5.7997,5.7997,5.7997,5.7997,5.7997,5.7997,5.7997,0.0,0.0,0.0,0.0,0.0,0.0,0.0,0.0,0.0,0.0,0.0,0.0,0.0,0.0,0.0,0.0,0.0,0.0,0.0,0.0,0.0,0.0,0.0,0.0,0.0,0.0,0.0,0.0,0.0,5.0712,5.0712,5.0712,5.0712,5.0712,5.0712,5.0712,5.0712,5.0712,5.0712,5.0712,5.0712,5.0483,5.0111,5.0111,4.9974,4.9728,4.9532,4.9234,4.8861,4.8676,4.8477,4.8306,4.8306,4.8306,4.8306,4.8306,4.8857,4.961,4.961,5.0418,5.1536,5.1867,5.2307,5.2747,5.3093,5.3203,5.3203,5.3203,5.3203,5.3203,5.3203,5.3555,5.3885,5.3885,5.4473,5.4987,5.462,5.4803,5.5207,5.5647,5.6345,5.6932,5.7409,5.7776,5.7997,5.7997,5.7997,5.7997,5.7997,5.7997,5.7997,5.7997,5.7997,5.7997,5.7997,5.7997,5.7997,5.7997,5.7997,5.7997,5.7997,5.7997,5.7997,5.7997,5.7997,5.7997,5.7997,5.7997,5.7997,5.7997,5.8474,5.8694,0.0,0.0,0.0,0.0,0.0,0.0,0.0,0.0,0.0,0.0,0.0,0.0,0.0,0.0,0.0,0.0,0.0,0.0,0.0,0.0,0.0,0.0,0.0,0.0,0.0,0.0,0.0,0.0,0.0,5.0712,5.0712,5.0712,5.0712,5.0712,5.0712,5.0712,5.0712,5.0712,5.0712,5.0712,5.0604,5.0336,4.9949,4.9859,4.9575,4.9171,4.8978,4.8847,4.8709,4.8421,4.8306,4.8306,4.8306,4.8306,4.8343,4.8563,4.915,4.9941,5.0161,5.1132,5.2307,5.2307,5.2711,5.3203,5.3203,5.3203,5.3203,5.3203,5.3371,5.3518,5.3518,5.4106,5.4693,5.4693,5.5317,5.5904,5.5904,5.5904,5.6124,5.6969,5.7116,5.7299,5.7886,5.7997,5.7997,5.7997,5.7997,5.7997,5.7997,5.7997,5.7997,5.7997,5.7997,5.7997,5.7997,5.7997,5.8107,5.829,5.829,5.84,5.8584,5.8621,5.8621,5.8621,5.8621,5.84,5.7997,5.7997,5.8107,5.8327,5.8914,5.9294,0.0,0.0,0.0,0.0,0.0,0.0,0.0,0.0,0.0,0.0,0.0,0.0,0.0,0.0,0.0,0.0,0.0,0.0,0.0,0.0,0.0,0.0,0.0,0.0,0.0,0.0,0.0,0.0,0.0,5.0712,5.0712,5.0712,5.0712,5.0712,5.0712,5.0712,5.0712,5.0712,5.0712,5.0702,5.0325,4.9924,4.9518,4.9139,4.8744,4.8364,4.8744,4.8674,4.8344,4.8306,4.8306,4.8306,4.8306,4.8306,4.8416,4.9224,5.0031,5.0839,5.161,5.2417,5.3151,5.3151,5.3167,5.3203,5.3203,5.3203,5.3203,5.3203,5.3739,5.4326,5.4326,5.4913,5.5559,5.5559,5.6161,5.6748,5.6748,5.6748,5.6969,5.7776,5.7923,5.796,5.7997,5.7997,5.7997,5.7997,5.7997,5.7997,5.7997,5.7997,5.7997,5.7997,5.7997,5.7997,5.7997,5.7997,5.8327,5.9074,5.9148,5.9478,6.0236,6.0272,6.0272,6.0272,6.0272,5.9538,5.7997,5.7997,5.84,5.9148,5.9184,5.9588,0.0,0.0,0.0,0.0,0.0,0.0,0.0,0.0,0.0,0.0,0.0,0.0,0.0,0.0,0.0,0.0,0.0,0.0,0.0,0.0,0.0,0.0,0.0,0.0,0.0,0.0,0.0,0.0,0.0,0.0,5.0673,5.0173,5.0125,5.0673,5.0712,5.0712,5.0712,5.0451,5.0325,5.0313,4.9911,4.9504,4.9108,4.8961,4.8656,4.8306,4.8458,4.8439,4.8306,4.8306,4.8306,4.8306,4.8306,4.8636,4.915,4.95,5.0455,5.161,5.1903,5.2527,5.3203,5.3203,5.3203,5.3203,5.3203,5.3203,5.3314,5.3812,5.4179,5.4509,5.5023,5.5757,5.6492,5.7005,5.7373,5.7556,5.7556,5.7556,5.7666,5.7923,5.7997,5.7997,5.7997,5.7997,5.7997,5.7997,5.7997,5.7997,5.7997,5.7997,5.7997,5.7997,5.8474,5.8767,5.8767,5.9245,5.9648,5.9942,5.9979,6.0126,6.0382,6.0419,6.0419,6.0419,6.0419,6.0126,5.9538,5.9538,5.9685,5.9979,6.0493,6.0614,0.0,0.0,0.0,0.0,0.0,0.0,0.0,0.0,0.0,0.0,0.0,0.0,0.0,0.0,0.0,0.0,0.0,0.0,0.0,0.0,0.0,0.0,0.0,0.0,0.0,0.0,0.0,0.0,0.0,0.0,4.9817,4.9548,4.9779,5.0673,5.0712,5.0624,5.0493,5.0218,5.0012,4.9898,4.9489,4.9155,4.8915,4.8761,4.855,4.8306,4.8306,4.8306,4.8306,4.8306,4.8306,4.8343,4.8636,4.9077,4.9684,5.0198,5.1079,5.205,5.2307,5.2747,5.3203,5.3203,5.3203,5.3203,5.3203,5.3408,5.3702,5.4252,5.4803,5.5317,5.5868,5.6602,5.7336,5.7886,5.7997,5.7997,5.7997,5.7997,5.7997,5.7997,5.7997,5.7997,5.7997,5.7997,5.7997,5.7997,5.7997,5.7997,5.7997,5.7997,5.8107,5.8364,5.8854,5.9294,5.9588,6.0089,6.0529,6.0786,6.0786,6.0933,6.119,6.1227,6.1227,6.1227,6.1227,6.1227,6.119,6.0676,6.0529,6.0823,6.1337,6.1292,0.0,0.0,0.0,0.0,0.0,0.0,0.0,0.0,0.0,0.0,0.0,0.0,0.0,0.0,0.0,0.0,0.0,0.0,0.0,0.0,0.0,0.0,0.0,0.0,0.0,0.0,0.0,0.0,0.0,4.9048,4.8202,4.8933,4.9779,5.0625,5.0654,5.0483,5.0099,5.0087,4.9872,4.9475,4.9075,4.8861,4.8881,4.8495,4.8306,4.8306,4.8306,4.8306,4.8306,4.8306,4.8306,4.8379,4.926,4.961,4.9831,5.1446,5.2013,5.216,5.2931,5.3203,5.3203,5.3203,5.3203,5.3203,5.3203,5.3775,5.4399,5.4473,5.5611,5.6822,5.6822,5.7409,5.7997,5.7997,5.7997,5.7997,5.7997,5.7997,5.7997,5.7997,5.7997,5.7997,5.7997,5.7997,5.7997,5.8033,5.8033,5.8033,5.807,5.8033,5.8327,5.9148,5.9258,5.9588,6.0382,6.0456,6.0786,6.1594,6.163,6.1998,6.2743,6.278,6.278,6.278,6.278,6.278,6.278,6.1227,6.086,6.163,6.1606,6.1584,4.0785,0.0,0.0,0.0,0.0,0.0,0.0,0.0,0.0,0.0,0.0,0.0,0.0,0.0,0.0,0.0,0.0,0.0,0.0,0.0,0.0,0.0,0.0,0.0,0.0,0.0,0.0,0.0,4.974,4.9279,4.9048,4.9279,4.9383,4.9323,4.9935,5.0049,4.9659,4.9386,4.9187,4.9059,4.8676,4.8477,4.8477,4.8363,4.8306,4.8306,4.8306,4.8306,4.8306,4.8306,4.8306,4.8379,4.926,4.9978,5.0582,5.161,5.238,5.2894,5.3093,5.3203,5.3203,5.3203,5.3203,5.3314,5.3885,5.4216,5.4656,5.5831,5.6455,5.6932,5.7519,5.7813,5.7997,5.7997,5.7997,5.7997,5.7997,5.7997,5.7997,5.7997,5.7997,5.7997,5.7997,5.7997,5.8217,5.8804,5.8364,5.8437,5.9575,5.9245,5.9208,5.9979,6.0603,6.1043,6.1263,6.1814,6.2254,6.2475,6.2475,6.2585,6.278,6.278,6.278,6.278,6.278,6.278,6.278,6.2365,6.2254,6.245,6.1855,6.1304,0.0,0.0,0.0,0.0,0.0,0.0,0.0,4.7007,0.0,0.0,0.0,0.0,0.0,0.0,0.0,0.0,0.0,0.0,0.0,0.0,0.0,0.0,0.0,0.0,0.0,0.0,0.0,4.971,4.919,4.8826,4.8639,4.8276,4.8307,4.8803,4.915,4.9319,4.9249,4.9011,4.883,4.8658,4.8402,4.8306,4.8306,4.8306,4.8306,4.8306,4.8306,4.8306,4.8306,4.8306,4.8489,4.8893,4.9738,5.0582,5.1389,5.2197,5.2821,5.3203,5.3203,5.3203,5.3203,5.3203,5.3203,5.3371,5.4179,5.462,5.517,5.6455,5.7042,5.7409,5.7886,5.7997,5.7997,5.7997,5.7997,5.7997,5.7997,5.7997,5.7997,5.7997,5.7997,5.8107,5.8437,5.851,5.8767,5.9575,5.9318,5.9355,6.0272,6.0015,6.0015,6.0823,6.13,6.1741,6.2071,6.2548,6.278,6.278,6.278,6.278,6.278,6.278,6.278,6.278,6.278,6.278,6.278,6.278,6.278,6.278,6.1969,6.1171,0.0,0.0,0.0,0.0,0.0,0.0,4.4794,4.6725,0.0,0.0,0.0,0.0,0.0,0.0,0.0,0.0,0.0,0.0,0.0,0.0,0.0,0.0,0.0,0.0,0.0,5.0024,4.9569,4.8479,4.8342,4.8098,4.7548,4.6832,4.7076,4.8504,4.8345,4.8438,4.8847,4.8847,4.8639,4.8306,4.8306,4.8306,4.8306,4.8306,4.8306,4.8306,4.8306,4.8306,4.8306,4.8416,4.8857,4.9591,5.0472,5.1279,5.2087,5.2894,5.3203,5.3203,5.3203,5.3203,5.3203,5.3203,5.324,5.3482,5.4289,5.5097,5.5904,5.6712,5.7446,5.7997,5.7997,5.7997,5.7997,5.7997,5.7997,5.7997,5.7997,5.7997,5.8033,5.8107,5.8143,5.8364,5.9074,5.9258,5.9588,6.0419,6.0456,6.0456,6.0639,6.0603,6.086,6.163,6.1741,6.2034,6.2768,6.278,6.278,6.278,6.278,6.278,6.278,6.278,6.278,6.278,6.273,6.2679,6.2679,6.2755,6.2755,6.2654,6.1942,6.1113,4.0516,4.1123,4.1873,0.0,0.0,0.0,0.0,4.4607,0.0,0.0,0.0,0.0,0.0,0.0,0.0,0.0,0.0,0.0,0.0,0.0,0.0,0.0,0.0,0.0,0.0,4.9603,4.9662,4.9733,4.9373,4.8711,4.7617,4.7426,4.7214,4.6877,4.7473,4.8012,4.8421,4.8421,4.8401,4.8306,4.8306,4.8306,4.8306,4.8306,4.8306,4.8306,4.8306,4.8306,4.8343,4.904,4.9463,4.9647,5.0472,5.1279,5.2087,5.2894,5.3203,5.3203,5.3203,5.3203,5.3203,5.3203,5.3665,5.4326,5.5097,5.5941,5.6748,5.7556,5.7886,5.7997,5.7997,5.7997,5.7997,5.7997,5.7997,5.7997,5.7997,5.7997,5.818,5.8841,5.8964,5.9001,5.9148,5.9758,6.0456,6.1227,6.0823,6.086,6.2181,6.1777,6.1667,6.2475,6.2585,6.2658,6.2805,6.278,6.278,6.278,6.278,6.278,6.278,6.278,6.278,6.278,6.2156,6.1824,6.1824,6.249,6.249,6.1824,6.1687,6.0784,4.0516,4.0705,4.1045,4.1526,0.0,0.0,0.0,0.0,0.0,0.0,0.0,0.0,0.0,0.0,0.0,0.0,0.0,0.0,0.0,0.0,0.0,0.0,0.0,0.0,0.0,4.9202,4.9202,4.9202,4.8805,4.8285,4.7692,4.724,4.7018,4.7057,4.7265,4.7702,4.8306,4.8306,4.8306,4.8306,4.8306,4.8306,4.8306,4.8306,4.8306,4.8306,4.8306,4.8306,4.8379,4.9243,4.9831,5.0288,5.1059,5.1903,5.2637,5.3078,5.3203,5.3203,5.3203,5.3203,5.3298,5.3665,5.4069,5.462,5.5831,5.6748,5.7483,5.7886,5.7997,5.7997,5.7997,5.7997,5.7997,5.7997,5.7997,5.7997,5.7997,5.7997,5.8253,5.9038,5.9515,5.9942,6.0346,6.075,6.1263,6.2071,6.1851,6.1887,6.267,6.2438,6.2365,6.2768,6.278,6.278,6.278,6.278,6.278,6.278,6.278,6.278,6.278,6.278,6.2592,6.2219,6.1797,6.14,6.0997,6.1407,6.1407,6.0997,6.0544,5.9893,0.0,0.0,0.0,0.0,0.0,4.2217,0.0,0.0,0.0,0.0,0.0,0.0,0.0,0.0,0.0,0.0,0.0,0.0,0.0,0.0,0.0,0.0,0.0,0.0,0.0,4.8864,4.8761,4.8439,4.8204,4.7958,4.769,4.702,4.6934,4.7556,4.7279,4.748,4.8306,4.8306,4.8306,4.8306,4.8306,4.8306,4.8306,4.8306,4.8306,4.8306,4.8306,4.8416,4.8636,4.9481,5.0288,5.1096,5.1756,5.2491,5.3203,5.3203,5.3203,5.3203,5.3203,5.3203,5.3335,5.4142,5.462,5.5133,5.6602,5.7483,5.7997,5.7997,5.7997,5.7997,5.7997,5.7997,5.7997,5.7997,5.7997,5.7997,5.7997,5.8107,5.8474,5.9258,6.0089,6.086,6.1484,6.1741,6.2034,6.267,6.278,6.278,6.278,6.278,6.278,6.278,6.278,6.278,6.278,6.278,6.278,6.278,6.278,6.278,6.278,6.2643,6.2271,6.1632,6.1286,6.082,6.0149,5.9991,5.9991,6.0117,5.9443,5.901,0.0,0.0,0.0,0.0,4.3141,0.0,0.0,0.0,0.0,0.0,0.0,0.0,0.0,0.0,0.0,0.0,0.0,0.0,0.0,0.0,0.0,0.0,0.0,0.0,0.0,0.0,4.8898,4.8847,4.9127,4.8829,4.7756,4.7611,4.7428,4.7169,4.7113,4.748,4.8306,4.8306,4.8306,4.8306,4.8306,4.8306,4.8306,4.8306,4.8306,4.8306,4.8306,4.8746,4.9537,5.0325,5.1132,5.1867,5.194,5.2491,5.3203,5.3203,5.3203,5.3203,5.3203,5.3203,5.3335,5.4142,5.5354,5.6712,5.7593,5.7923,5.7997,5.7997,5.7997,5.7997,5.7997,5.7997,5.7997,5.7997,5.7997,5.7997,5.7997,5.8547,5.9318,6.0126,6.0896,6.1484,6.1557,6.2181,6.267,6.2805,6.278,6.278,6.278,6.278,6.278,6.278,6.278,6.278,6.278,6.278,6.278,6.278,6.278,6.278,6.278,6.2103,6.1687,6.1604,6.0145,5.9344,5.9245,5.8529,5.8529,5.9245,5.9144,5.8703,0.0,0.0,0.0,0.0,0.0,0.0,0.0,0.0,4.3515,0.0,0.0,0.0,0.0,0.0,0.0,0.0,0.0,0.0,0.0,0.0,0.0,0.0,0.0,0.0,0.0,0.0,0.0,0.0,0.0,4.9117,4.8106,4.8069,4.796,4.7792,4.7773,4.7957,4.8306,4.8306,4.8306,4.8306,4.8306,4.8306,4.8306,4.8306,4.8306,4.8306,4.8306,4.8783,4.9647,5.0472,5.1279,5.205,5.2527,5.2894,5.3203,5.3203,5.3203,5.3203,5.3203,5.3518,5.4106,5.539,5.6565,5.7556,5.7886,5.7997,5.7997,5.7997,5.7997,5.7997,5.7997,5.7997,5.7997,5.7997,5.8364,5.8694,5.8694,5.9355,6.0126,6.0933,6.1374,6.1741,6.2218,6.2585,6.278,6.278,6.278,6.278,6.278,6.278,6.278,6.278,6.278,6.278,6.278,6.278,6.278,6.278,6.278,6.2592,6.2103,6.177,6.1142,6.0176,5.9441,5.8875,5.8423,5.8065,5.8065,5.8423,5.8423,5.821,4.3118,0.0,0.0,0.0,0.0,0.0,0.0,0.0,0.0,0.0,0.0,0.0,0.0,0.0,0.0,0.0,0.0,0.0,0.0,0.0,0.0,0.0,0.0,0.0,0.0,0.0,0.0,0.0,0.0,0.0,4.8343,4.8306,4.8306,4.8306,4.8306,4.8306,4.8306,4.8306,4.8306,4.8306,4.8306,4.8306,4.8306,4.8306,4.8306,4.8306,4.8563,4.915,5.0014,5.0802,5.161,5.238,5.2968,5.3203,5.3203,5.3203,5.3203,5.3203,5.3445,5.4216,5.5244,5.6418,5.7336,5.7997,5.7997,5.7997,5.7997,5.7997,5.7997,5.7997,5.7997,5.8143,5.8327,5.8327,5.8951,5.9515,5.9515,6.0162,6.0896,6.1484,6.1777,6.2108,6.267,6.278,6.278,6.278,6.278,6.278,6.278,6.278,6.278,6.278,6.278,6.278,6.278,6.278,6.2705,6.249,6.249,6.2103,6.1286,6.1055,6.0361,5.9111,5.8875,5.8459,5.7881,5.7881,5.7881,5.7881,5.7881,5.7881,0.0,0.0,0.0,4.356,0.0,0.0,0.0,0.0,4.3515,0.0,0.0,0.0,0.0,0.0,0.0,0.0,0.0,0.0,0.0,0.0,0.0,0.0,0.0,0.0,0.0,0.0,0.0,0.0,0.0,0.0,4.8306,4.8306,4.8306,4.8306,4.8306,4.8306,4.8306,4.8306,4.8306,4.8306,4.8306,4.8306,4.8306,4.8306,4.8306,4.8343,4.9206,4.9994,5.0839,5.161,5.2454,5.3167,5.3167,5.3203,5.3203,5.3203,5.3203,5.3314,5.4106,5.539,5.6748,5.6785,5.7336,5.7997,5.7997,5.7997,5.7997,5.7997,5.7997,5.7997,5.7997,5.8584,5.9148,5.9148,5.9795,6.0382,6.0382,6.1006,6.1557,6.1594,6.2218,6.2743,6.278,6.278,6.278,6.278,6.278,6.278,6.278,6.278,6.278,6.278,6.278,6.278,6.278,6.278,6.249,6.1687,6.1632,6.1257,6.0458,5.9639,5.9144,5.9111,5.8352,5.7918,5.7881,5.7881,5.7881,5.7881,5.7881,5.7881,0.0,0.0,4.3927,4.358,0.0,0.0,0.0,0.0,0.0,0.0,0.0,0.0,0.0,0.0,0.0,0.0,0.0,0.0,0.0,0.0,0.0,0.0,0.0,0.0,0.0,0.0,0.0,0.0,0.0,0.0,0.0,4.8306,4.8306,4.8306,4.8306,4.8306,4.8306,4.8306,4.8306,4.8306,4.8306,4.8306,4.8306,4.8306,4.86,4.9187,4.9463,5.0381,5.161,5.1867,5.2454,5.3203,5.3203,5.3203,5.3203,5.3203,5.3555,5.4179,5.5537,5.6345,5.6895,5.7409,5.7776,5.7997,5.7997,5.7997,5.7997,5.7997,5.7997,5.8107,5.8657,5.9001,5.9331,5.9869,6.0603,6.119,6.119,6.1814,6.2401,6.2401,6.2622,6.278,6.278,6.278,6.278,6.278,6.278,6.278,6.278,6.278,6.278,6.278,6.278,6.278,6.278,6.2298,6.1659,6.0849,6.079,6.0427,5.9574,5.9245,5.884,5.8317,5.8029,5.7881,5.7881,5.7881,5.7881,5.7881,5.7881,5.7881,4.455,4.4304,0.0,4.358,4.3094,0.0,4.3754,0.0,0.0,0.0,0.0,0.0,0.0,0.0,0.0,0.0,0.0,0.0,0.0,0.0,0.0,0.0,0.0,0.0,0.0,0.0,4.8049,4.7553,4.8269,0.0,0.0,0.0,4.8306,4.8306,4.8306,4.8306,4.8306,4.8306,4.8306,4.8306,4.8306,4.8306,4.8306,4.86,4.904,4.9647,5.0198,5.1042,5.2013,5.2307,5.2747,5.3203,5.3203,5.3203,5.3203,5.3518,5.4326,5.539,5.6455,5.7005,5.7299,5.7813,5.7997,5.7997,5.7997,5.7997,5.7997,5.7997,5.8217,5.8547,5.9074,5.9625,6.0199,6.0713,6.1447,6.2034,6.2034,6.2438,6.278,6.278,6.278,6.278,6.278,6.278,6.278,6.278,6.278,6.278,6.278,6.278,6.278,6.278,6.2541,6.2271,6.1969,6.1492,6.082,5.9991,5.9928,5.9541,5.8703,5.8668,5.8458,5.7918,5.7881,5.7881,5.7881,5.7881,5.7881,5.7881,5.7881,5.7881]}]]